| time (UTC) | temp C | wind direction | speed KPH | gust KPH | rain 1hr cm | rain 24hr cm | rain mn cm | humidity % | barometer mb |
| 20260906065913 | 26 | 275 | 8.0 | 11.3 | 0.00 | 0.00 | 0.00 | 56 | 1022.7 |
| 20260906065809 | 26 | 274 | 6.4 | 11.3 | 0.00 | 0.00 | 0.00 | 57 | 1022.7 |
| 20260906065706 | 26 | 273 | 6.4 | 11.3 | 0.00 | 0.00 | 0.00 | 57 | 1022.5 |
| 20260906065506 | 26 | 270 | 6.4 | 8.0 | 0.00 | 0.00 | 0.00 | 57 | 1022.3 |
| 20260906065405 | 26 | 270 | 6.4 | 8.0 | 0.00 | 0.00 | 0.00 | 56 | 1022.3 |
| 20260906065308 | 26 | 272 | 6.4 | 8.0 | 0.00 | 0.00 | 0.00 | 57 | 1022.4 |
| 20260906065205 | 26 | 274 | 4.8 | 8.0 | 0.00 | 0.00 | 0.00 | 56 | 1022.5 |
| 20260906065107 | 26 | 273 | 4.8 | 8.0 | 0.00 | 0.00 | 0.00 | 56 | 1022.3 |
| 20260906064906 | 26 | 265 | 4.8 | 6.4 | 0.00 | 0.00 | 0.00 | 56 | 1022.3 |
| 20260906064704 | 26 | 263 | 4.8 | 6.4 | 0.00 | 0.00 | 0.00 | 56 | 1022.2 |
| 20260906064605 | 26 | 258 | 4.8 | 6.4 | 0.00 | 0.00 | 0.00 | 56 | 1022.2 |
| 20260906064505 | 26 | 260 | 4.8 | 6.4 | 0.00 | 0.00 | 0.00 | 56 | 1022.2 |
| 20260906064404 | 26 | 259 | 4.8 | 6.4 | 0.00 | 0.00 | 0.00 | 56 | 1022.2 |
| 20260906064305 | 26 | 260 | 4.8 | 6.4 | 0.00 | 0.00 | 0.00 | 56 | 1022.2 |
| 20260906064204 | 26 | 257 | 4.8 | 6.4 | 0.00 | 0.00 | 0.00 | 56 | 1022.2 |
| 20260906064104 | 26 | 258 | 4.8 | 6.4 | 0.00 | 0.00 | 0.00 | 56 | 1022.2 |
| 20260906064005 | 26 | 259 | 4.8 | 6.4 | 0.00 | 0.00 | 0.00 | 56 | 1022.2 |
| 20260906063904 | 26 | 261 | 4.8 | 6.4 | 0.00 | 0.00 | 0.00 | 56 | 1022.4 |
| 20260906063804 | 26 | 259 | 4.8 | 6.4 | 0.00 | 0.00 | 0.00 | 56 | 1022.2 |
| 20260906063704 | 26 | 256 | 4.8 | 6.4 | 0.00 | 0.00 | 0.00 | 56 | 1022.2 |
| 20260906063604 | 26 | 257 | 4.8 | 6.4 | 0.00 | 0.00 | 0.00 | 56 | 1022.2 |
| 20260906063504 | 26 | 258 | 4.8 | 6.4 | 0.00 | 0.00 | 0.00 | 56 | 1022.1 |
| 20260906063404 | 26 | 259 | 4.8 | 6.4 | 0.00 | 0.00 | 0.00 | 56 | 1022.3 |
| 20260906063305 | 26 | 257 | 4.8 | 6.4 | 0.00 | 0.00 | 0.00 | 56 | 1022.0 |
| 20260906063204 | 26 | 257 | 4.8 | 6.4 | 0.00 | 0.00 | 0.00 | 56 | 1022.3 |
| 20260906063104 | 26 | 254 | 4.8 | 8.0 | 0.00 | 0.00 | 0.00 | 57 | 1022.3 |
| 20260906062804 | 26 | 251 | 6.4 | 8.0 | 0.00 | 0.00 | 0.00 | 57 | 1022.3 |
| 20260906062604 | 26 | 251 | 6.4 | 9.7 | 0.00 | 0.00 | 0.00 | 57 | 1022.1 |
| 20260906062505 | 26 | 251 | 6.4 | 9.7 | 0.00 | 0.00 | 0.00 | 57 | 1022.2 |
| 20260906062306 | 25 | 253 | 8.0 | 9.7 | 0.00 | 0.00 | 0.00 | 57 | 1022.3 |
| 20260906062205 | 25 | 253 | 8.0 | 9.7 | 0.00 | 0.00 | 0.00 | 58 | 1022.3 |
| 20260906062104 | 25 | 254 | 8.0 | 9.7 | 0.00 | 0.00 | 0.00 | 58 | 1022.4 |
| 20260906062004 | 25 | 253 | 8.0 | 9.7 | 0.00 | 0.00 | 0.00 | 58 | 1022.3 |
| 20260906061804 | 25 | 254 | 8.0 | 9.7 | 0.00 | 0.00 | 0.00 | 58 | 1022.2 |
| 20260906061704 | 25 | 253 | 8.0 | 9.7 | 0.00 | 0.00 | 0.00 | 57 | 1022.3 |
| 20260906061604 | 25 | 252 | 8.0 | 9.7 | 0.00 | 0.00 | 0.00 | 57 | 1022.2 |
| 20260906061405 | 25 | 250 | 8.0 | 9.7 | 0.00 | 0.00 | 0.00 | 58 | 1022.1 |
| 20260906061204 | 25 | 245 | 8.0 | 9.7 | 0.00 | 0.00 | 0.00 | 58 | 1022.0 |
| 20260906061104 | 25 | 248 | 8.0 | 9.7 | 0.00 | 0.00 | 0.00 | 58 | 1022.0 |
| 20260906061005 | 25 | 247 | 8.0 | 9.7 | 0.00 | 0.00 | 0.00 | 58 | 1022.0 |
| 20260906060904 | 25 | 249 | 8.0 | 9.7 | 0.00 | 0.00 | 0.00 | 58 | 1022.0 |
| 20260906060705 | 25 | 250 | 8.0 | 9.7 | 0.00 | 0.00 | 0.00 | 58 | 1021.9 |
| 20260906060604 | 25 | 253 | 8.0 | 9.7 | 0.00 | 0.00 | 0.00 | 58 | 1021.9 |
| 20260906060505 | 25 | 250 | 8.0 | 9.7 | 0.00 | 0.00 | 0.00 | 58 | 1022.0 |
| 20260906060404 | 25 | 250 | 8.0 | 9.7 | 0.00 | 0.00 | 0.00 | 58 | 1022.0 |
| 20260906060305 | 25 | 249 | 8.0 | 9.7 | 0.00 | 0.00 | 0.00 | 58 | 1021.9 |
| 20260906060104 | 25 | 248 | 8.0 | 9.7 | 0.00 | 0.00 | 0.00 | 57 | 1022.1 |
| 20260906060005 | 25 | 247 | 8.0 | 9.7 | 0.00 | 0.00 | 0.00 | 58 | 1022.0 |
| 20260906055904 | 25 | 244 | 8.0 | 9.7 | 0.00 | 0.00 | 0.00 | 58 | 1022.0 |
| 20260906055805 | 25 | 242 | 8.0 | 9.7 | 0.00 | 0.00 | 0.00 | 58 | 1022.0 |
| 20260906055704 | 25 | 242 | 8.0 | 9.7 | 0.00 | 0.00 | 0.00 | 58 | 1021.8 |
| 20260906055604 | 25 | 239 | 8.0 | 9.7 | 0.00 | 0.00 | 0.00 | 58 | 1022.0 |
| 20260906055505 | 25 | 241 | 8.0 | 9.7 | 0.00 | 0.00 | 0.00 | 58 | 1022.0 |
| 20260906055405 | 25 | 242 | 8.0 | 9.7 | 0.00 | 0.00 | 0.00 | 58 | 1021.8 |
| 20260906055306 | 25 | 243 | 8.0 | 9.7 | 0.00 | 0.00 | 0.00 | 58 | 1021.9 |
| 20260906055205 | 25 | 245 | 8.0 | 9.7 | 0.00 | 0.00 | 0.00 | 59 | 1021.8 |
| 20260906055104 | 25 | 245 | 8.0 | 9.7 | 0.00 | 0.00 | 0.00 | 58 | 1021.9 |
| 20260906055004 | 25 | 244 | 8.0 | 9.7 | 0.00 | 0.00 | 0.00 | 59 | 1021.8 |
| 20260906054904 | 25 | 246 | 8.0 | 11.3 | 0.00 | 0.00 | 0.00 | 59 | 1021.8 |
| 20260906054804 | 25 | 246 | 8.0 | 11.3 | 0.00 | 0.00 | 0.00 | 59 | 1021.7 |
| 20260906054704 | 25 | 245 | 9.7 | 12.9 | 0.00 | 0.00 | 0.00 | 59 | 1021.9 |
| 20260906054605 | 25 | 246 | 9.7 | 12.9 | 0.00 | 0.00 | 0.00 | 59 | 1021.8 |
| 20260906054504 | 25 | 245 | 9.7 | 12.9 | 0.00 | 0.00 | 0.00 | 59 | 1021.7 |
| 20260906054404 | 25 | 243 | 9.7 | 12.9 | 0.00 | 0.00 | 0.00 | 59 | 1021.7 |
| 20260906054304 | 25 | 245 | 11.3 | 12.9 | 0.00 | 0.00 | 0.00 | 59 | 1021.6 |
| 20260906054205 | 25 | 245 | 11.3 | 12.9 | 0.00 | 0.00 | 0.00 | 59 | 1021.8 |
| 20260906054105 | 25 | 246 | 11.3 | 12.9 | 0.00 | 0.00 | 0.00 | 59 | 1021.6 |
| 20260906054004 | 25 | 248 | 11.3 | 12.9 | 0.00 | 0.00 | 0.00 | 59 | 1021.6 |
| 20260906053804 | 25 | 246 | 11.3 | 12.9 | 0.00 | 0.00 | 0.00 | 59 | 1021.6 |
| 20260906053704 | 25 | 245 | 11.3 | 12.9 | 0.00 | 0.00 | 0.00 | 59 | 1021.6 |
| 20260906053604 | 25 | 246 | 11.3 | 12.9 | 0.00 | 0.00 | 0.00 | 59 | 1021.6 |
| 20260906053404 | 25 | 247 | 11.3 | 12.9 | 0.00 | 0.00 | 0.00 | 59 | 1021.6 |
| 20260906053304 | 25 | 248 | 9.7 | 12.9 | 0.00 | 0.00 | 0.00 | 59 | 1021.5 |
| 20260906053204 | 25 | 248 | 9.7 | 12.9 | 0.00 | 0.00 | 0.00 | 59 | 1021.6 |
| 20260906053005 | 25 | 246 | 9.7 | 12.9 | 0.00 | 0.00 | 0.00 | 59 | 1021.6 |
| 20260906052904 | 25 | 249 | 9.7 | 9.7 | 0.00 | 0.00 | 0.00 | 60 | 1021.8 |
| 20260906052804 | 25 | 249 | 9.7 | 9.7 | 0.00 | 0.00 | 0.00 | 59 | 1021.6 |
| 20260906052704 | 25 | 246 | 9.7 | 9.7 | 0.00 | 0.00 | 0.00 | 59 | 1021.6 |
| 20260906052504 | 25 | 246 | 9.7 | 9.7 | 0.00 | 0.00 | 0.00 | 59 | 1021.6 |
| 20260906052404 | 25 | 246 | 8.0 | 9.7 | 0.00 | 0.00 | 0.00 | 59 | 1021.6 |
| 20260906052305 | 25 | 246 | 9.7 | 9.7 | 0.00 | 0.00 | 0.00 | 59 | 1021.5 |
| 20260906052204 | 25 | 246 | 9.7 | 9.7 | 0.00 | 0.00 | 0.00 | 59 | 1021.6 |
| 20260906052104 | 25 | 246 | 9.7 | 9.7 | 0.00 | 0.00 | 0.00 | 59 | 1021.6 |
| 20260906051906 | 25 | 246 | 9.7 | 11.3 | 0.00 | 0.00 | 0.00 | 58 | 1021.5 |
| 20260906051804 | 25 | 248 | 9.7 | 12.9 | 0.00 | 0.00 | 0.00 | 58 | 1021.5 |
| 20260906051604 | 25 | 251 | 9.7 | 12.9 | 0.00 | 0.00 | 0.00 | 58 | 1021.6 |
| 20260906051505 | 25 | 251 | 9.7 | 12.9 | 0.00 | 0.00 | 0.00 | 59 | 1021.6 |
| 20260906051404 | 25 | 251 | 9.7 | 12.9 | 0.00 | 0.00 | 0.00 | 59 | 1021.5 |
| 20260906051305 | 25 | 251 | 9.7 | 12.9 | 0.00 | 0.00 | 0.00 | 58 | 1021.5 |
| 20260906051105 | 25 | 251 | 11.3 | 12.9 | 0.00 | 0.00 | 0.00 | 59 | 1021.7 |
| 20260906051004 | 25 | 249 | 11.3 | 12.9 | 0.00 | 0.00 | 0.00 | 59 | 1021.4 |
| 20260906050904 | 25 | 249 | 11.3 | 12.9 | 0.00 | 0.00 | 0.00 | 58 | 1021.5 |
| 20260906050704 | 25 | 250 | 11.3 | 12.9 | 0.00 | 0.00 | 0.00 | 58 | 1021.5 |
| 20260906050604 | 25 | 250 | 11.3 | 12.9 | 0.00 | 0.00 | 0.00 | 59 | 1021.5 |
| 20260906050504 | 25 | 250 | 11.3 | 12.9 | 0.00 | 0.00 | 0.00 | 58 | 1021.5 |
| 20260906050404 | 25 | 250 | 11.3 | 12.9 | 0.00 | 0.00 | 0.00 | 58 | 1021.4 |
| 20260906050204 | 25 | 250 | 11.3 | 12.9 | 0.00 | 0.00 | 0.00 | 58 | 1021.4 |
| 20260906050105 | 25 | 249 | 11.3 | 12.9 | 0.00 | 0.00 | 0.00 | 58 | 1021.5 |
| 20260906050005 | 25 | 251 | 11.3 | 12.9 | 0.00 | 0.00 | 0.00 | 58 | 1021.4 |
| 20260906045904 | 25 | 251 | 11.3 | 12.9 | 0.00 | 0.00 | 0.00 | 57 | 1021.4 |
| 20260906045805 | 25 | 249 | 11.3 | 12.9 | 0.00 | 0.00 | 0.00 | 58 | 1021.4 |
| 20260906045705 | 25 | 247 | 11.3 | 12.9 | 0.00 | 0.00 | 0.00 | 57 | 1021.5 |
| 20260906045605 | 25 | 247 | 11.3 | 12.9 | 0.00 | 0.00 | 0.00 | 57 | 1021.4 |
| 20260906045404 | 25 | 247 | 11.3 | 12.9 | 0.00 | 0.00 | 0.00 | 57 | 1021.3 |
| 20260906045306 | 25 | 247 | 11.3 | 12.9 | 0.00 | 0.00 | 0.00 | 56 | 1021.2 |
| 20260906045204 | 25 | 248 | 11.3 | 12.9 | 0.00 | 0.00 | 0.00 | 56 | 1021.5 |
| 20260906045104 | 25 | 250 | 11.3 | 12.9 | 0.00 | 0.00 | 0.00 | 56 | 1021.2 |
| 20260906045005 | 25 | 250 | 11.3 | 12.9 | 0.00 | 0.00 | 0.00 | 56 | 1021.3 |
| 20260906044904 | 24 | 250 | 9.7 | 12.9 | 0.00 | 0.00 | 0.00 | 56 | 1021.3 |
| 20260906044805 | 24 | 252 | 9.7 | 12.9 | 0.00 | 0.00 | 0.00 | 57 | 1021.3 |
| 20260906044704 | 24 | 252 | 9.7 | 12.9 | 0.00 | 0.00 | 0.00 | 57 | 1021.2 |
| 20260906044605 | 24 | 252 | 9.7 | 11.3 | 0.00 | 0.00 | 0.00 | 57 | 1021.1 |
| 20260906044506 | 24 | 252 | 9.7 | 11.3 | 0.00 | 0.00 | 0.00 | 56 | 1021.2 |
| 20260906044404 | 24 | 252 | 9.7 | 11.3 | 0.00 | 0.00 | 0.00 | 56 | 1021.2 |
| 20260906044304 | 24 | 252 | 9.7 | 11.3 | 0.00 | 0.00 | 0.00 | 56 | 1021.2 |
| 20260906044204 | 24 | 250 | 9.7 | 11.3 | 0.00 | 0.00 | 0.00 | 56 | 1021.3 |
| 20260906044104 | 24 | 248 | 9.7 | 11.3 | 0.00 | 0.00 | 0.00 | 56 | 1021.3 |
| 20260906044005 | 24 | 248 | 9.7 | 11.3 | 0.00 | 0.00 | 0.00 | 56 | 1021.4 |
| 20260906043905 | 24 | 248 | 9.7 | 11.3 | 0.00 | 0.00 | 0.00 | 56 | 1021.2 |
| 20260906043804 | 24 | 250 | 9.7 | 11.3 | 0.00 | 0.00 | 0.00 | 56 | 1021.1 |
| 20260906043504 | 24 | 251 | 9.7 | 12.9 | 0.00 | 0.00 | 0.00 | 56 | 1021.2 |
| 20260906043404 | 24 | 251 | 9.7 | 12.9 | 0.00 | 0.00 | 0.00 | 56 | 1021.3 |
| 20260906043304 | 24 | 251 | 9.7 | 12.9 | 0.00 | 0.00 | 0.00 | 56 | 1021.2 |
| 20260906043105 | 24 | 254 | 9.7 | 12.9 | 0.00 | 0.00 | 0.00 | 56 | 1021.2 |
| 20260906043005 | 24 | 254 | 9.7 | 12.9 | 0.00 | 0.00 | 0.00 | 56 | 1021.1 |
| 20260906042904 | 24 | 254 | 9.7 | 12.9 | 0.00 | 0.00 | 0.00 | 56 | 1021.2 |
| 20260906042704 | 24 | 249 | 9.7 | 12.9 | 0.00 | 0.00 | 0.00 | 57 | 1021.2 |
| 20260906042604 | 24 | 247 | 9.7 | 12.9 | 0.00 | 0.00 | 0.00 | 57 | 1021.1 |
| 20260906042505 | 24 | 247 | 9.7 | 12.9 | 0.00 | 0.00 | 0.00 | 57 | 1021.2 |
| 20260906042404 | 24 | 247 | 9.7 | 11.3 | 0.00 | 0.00 | 0.00 | 57 | 1020.9 |
| 20260906042306 | 24 | 247 | 9.7 | 11.3 | 0.00 | 0.00 | 0.00 | 57 | 1021.1 |
| 20260906042204 | 24 | 248 | 9.7 | 11.3 | 0.00 | 0.00 | 0.00 | 57 | 1021.1 |
| 20260906042104 | 24 | 248 | 9.7 | 11.3 | 0.00 | 0.00 | 0.00 | 57 | 1021.0 |
| 20260906042004 | 24 | 250 | 9.7 | 11.3 | 0.00 | 0.00 | 0.00 | 57 | 1021.1 |
| 20260906041904 | 23 | 250 | 9.7 | 11.3 | 0.00 | 0.00 | 0.00 | 57 | 1021.1 |
| 20260906041804 | 23 | 250 | 9.7 | 11.3 | 0.00 | 0.00 | 0.00 | 58 | 1021.1 |
| 20260906041605 | 23 | 252 | 9.7 | 12.9 | 0.00 | 0.00 | 0.00 | 58 | 1021.2 |
| 20260906041504 | 23 | 252 | 9.7 | 12.9 | 0.00 | 0.00 | 0.00 | 58 | 1021.0 |
| 20260906041405 | 23 | 252 | 9.7 | 12.9 | 0.00 | 0.00 | 0.00 | 58 | 1021.1 |
| 20260906041304 | 23 | 251 | 9.7 | 12.9 | 0.00 | 0.00 | 0.00 | 58 | 1020.9 |
| 20260906041205 | 23 | 248 | 9.7 | 12.9 | 0.00 | 0.00 | 0.00 | 58 | 1021.1 |
| 20260906041105 | 23 | 247 | 9.7 | 12.9 | 0.00 | 0.00 | 0.00 | 58 | 1021.0 |
| 20260906041004 | 23 | 247 | 9.7 | 12.9 | 0.00 | 0.00 | 0.00 | 58 | 1020.9 |
| 20260906040904 | 23 | 247 | 9.7 | 12.9 | 0.00 | 0.00 | 0.00 | 58 | 1021.1 |
| 20260906040804 | 23 | 247 | 9.7 | 12.9 | 0.00 | 0.00 | 0.00 | 58 | 1021.0 |
| 20260906040704 | 23 | 247 | 9.7 | 12.9 | 0.00 | 0.00 | 0.00 | 58 | 1020.8 |
| 20260906040604 | 23 | 245 | 8.0 | 12.9 | 0.00 | 0.00 | 0.00 | 59 | 1021.0 |
| 20260906040504 | 23 | 244 | 8.0 | 9.7 | 0.00 | 0.00 | 0.00 | 59 | 1021.0 |
| 20260906040404 | 23 | 244 | 8.0 | 9.7 | 0.00 | 0.00 | 0.00 | 59 | 1021.0 |
| 20260906040304 | 23 | 246 | 8.0 | 9.7 | 0.00 | 0.00 | 0.00 | 60 | 1021.0 |
| 20260906040204 | 23 | 244 | 8.0 | 9.7 | 0.00 | 0.00 | 0.00 | 60 | 1020.9 |
| 20260906040005 | 23 | 244 | 8.0 | 8.0 | 0.00 | 0.00 | 0.00 | 60 | 1020.9 |
| 20260906035904 | 23 | 244 | 8.0 | 8.0 | 0.00 | 0.00 | 0.00 | 61 | 1020.9 |
| 20260906035704 | 23 | 243 | 8.0 | 8.0 | 0.00 | 0.00 | 0.00 | 61 | 1021.1 |
| 20260906035404 | 22 | 247 | 8.0 | 8.0 | 0.00 | 0.00 | 0.00 | 61 | 1020.8 |
| 20260906035306 | 22 | 246 | 8.0 | 8.0 | 0.00 | 0.00 | 0.00 | 62 | 1020.9 |
| 20260906035204 | 22 | 247 | 8.0 | 8.0 | 0.00 | 0.00 | 0.00 | 62 | 1020.9 |
| 20260906035104 | 22 | 247 | 8.0 | 8.0 | 0.00 | 0.00 | 0.00 | 62 | 1021.0 |
| 20260906035004 | 22 | 247 | 8.0 | 8.0 | 0.00 | 0.00 | 0.00 | 62 | 1020.7 |
| 20260906034904 | 22 | 247 | 8.0 | 8.0 | 0.00 | 0.00 | 0.00 | 63 | 1020.9 |
| 20260906034705 | 22 | 247 | 8.0 | 8.0 | 0.00 | 0.00 | 0.00 | 63 | 1020.6 |
| 20260906034604 | 22 | 247 | 8.0 | 8.0 | 0.00 | 0.00 | 0.00 | 63 | 1020.8 |
| 20260906034405 | 22 | 247 | 6.4 | 8.0 | 0.00 | 0.00 | 0.00 | 63 | 1020.9 |
| 20260906034304 | 22 | 247 | 6.4 | 8.0 | 0.00 | 0.00 | 0.00 | 63 | 1020.8 |
| 20260906034204 | 22 | 247 | 6.4 | 8.0 | 0.00 | 0.00 | 0.00 | 63 | 1020.9 |
| 20260906034104 | 22 | 247 | 6.4 | 8.0 | 0.00 | 0.00 | 0.00 | 63 | 1020.7 |
| 20260906034005 | 22 | 247 | 6.4 | 8.0 | 0.00 | 0.00 | 0.00 | 63 | 1020.8 |
| 20260906033904 | 22 | 247 | 6.4 | 8.0 | 0.00 | 0.00 | 0.00 | 63 | 1020.8 |
| 20260906033804 | 22 | 247 | 6.4 | 8.0 | 0.00 | 0.00 | 0.00 | 63 | 1020.8 |
| 20260906033704 | 22 | 247 | 6.4 | 8.0 | 0.00 | 0.00 | 0.00 | 62 | 1020.8 |
| 20260906033604 | 22 | 247 | 6.4 | 8.0 | 0.00 | 0.00 | 0.00 | 62 | 1020.7 |
| 20260906033504 | 22 | 247 | 6.4 | 8.0 | 0.00 | 0.00 | 0.00 | 62 | 1020.9 |
| 20260906033405 | 22 | 246 | 4.8 | 8.0 | 0.00 | 0.00 | 0.00 | 62 | 1020.8 |
| 20260906033304 | 22 | 248 | 4.8 | 6.4 | 0.00 | 0.00 | 0.00 | 63 | 1020.8 |
| 20260906033105 | 22 | 248 | 4.8 | 6.4 | 0.00 | 0.00 | 0.00 | 62 | 1020.8 |
| 20260906032804 | 22 | 248 | 3.2 | 4.8 | 0.00 | 0.00 | 0.00 | 61 | 1020.6 |
| 20260906032704 | 22 | 247 | 3.2 | 4.8 | 0.00 | 0.00 | 0.00 | 61 | 1020.6 |
| 20260906032604 | 22 | 247 | 3.2 | 4.8 | 0.00 | 0.00 | 0.00 | 61 | 1020.6 |
| 20260906032504 | 22 | 247 | 1.6 | 4.8 | 0.00 | 0.00 | 0.00 | 62 | 1020.7 |
| 20260906032405 | 22 | 245 | 1.6 | 4.8 | 0.00 | 0.00 | 0.00 | 62 | 1020.7 |
| 20260906032306 | 22 | 244 | 1.6 | 4.8 | 0.00 | 0.00 | 0.00 | 62 | 1020.7 |
| 20260906032206 | 22 | 242 | 1.6 | 4.8 | 0.00 | 0.00 | 0.00 | 62 | 1020.6 |
| 20260906032104 | 22 | 238 | 1.6 | 4.8 | 0.00 | 0.00 | 0.00 | 63 | 1020.6 |
| 20260906032004 | 22 | 232 | 0.0 | 3.2 | 0.00 | 0.00 | 0.00 | 64 | 1020.7 |
| 20260906031905 | 22 | 251 | 0.0 | 4.8 | 0.00 | 0.00 | 0.00 | 64 | 1020.5 |
| 20260906031804 | 22 | 256 | 1.6 | 6.4 | 0.00 | 0.00 | 0.00 | 64 | 1020.5 |
| 20260906031704 | 22 | 251 | 1.6 | 6.4 | 0.00 | 0.00 | 0.00 | 64 | 1020.5 |
| 20260906031504 | 22 | 256 | 1.6 | 6.4 | 0.00 | 0.00 | 0.00 | 63 | 1020.5 |
| 20260906031404 | 22 | 267 | 1.6 | 6.4 | 0.00 | 0.00 | 0.00 | 63 | 1020.5 |
| 20260906031304 | 22 | 271 | 3.2 | 6.4 | 0.00 | 0.00 | 0.00 | 63 | 1020.7 |
| 20260906031204 | 22 | 271 | 3.2 | 6.4 | 0.00 | 0.00 | 0.00 | 62 | 1020.7 |
| 20260906031104 | 22 | 270 | 3.2 | 8.0 | 0.00 | 0.00 | 0.00 | 62 | 1020.7 |
| 20260906031004 | 22 | 267 | 4.8 | 8.0 | 0.00 | 0.00 | 0.00 | 61 | 1020.5 |
| 20260906030905 | 22 | 267 | 4.8 | 8.0 | 0.00 | 0.00 | 0.00 | 60 | 1020.7 |
| 20260906030805 | 22 | 269 | 4.8 | 8.0 | 0.00 | 0.00 | 0.00 | 61 | 1020.5 |
| 20260906030704 | 22 | 274 | 4.8 | 8.0 | 0.00 | 0.00 | 0.00 | 61 | 1020.4 |
| 20260906030604 | 22 | 278 | 4.8 | 8.0 | 0.00 | 0.00 | 0.00 | 61 | 1020.5 |
| 20260906030504 | 22 | 276 | 4.8 | 8.0 | 0.00 | 0.00 | 0.00 | 61 | 1020.6 |
| 20260906030304 | 22 | 270 | 4.8 | 8.0 | 0.00 | 0.00 | 0.00 | 60 | 1020.7 |
| 20260906030204 | 22 | 270 | 4.8 | 8.0 | 0.00 | 0.00 | 0.00 | 60 | 1020.6 |
| 20260906030104 | 22 | 270 | 6.4 | 8.0 | 0.00 | 0.00 | 0.00 | 61 | 1020.3 |
| 20260906025904 | 22 | 274 | 6.4 | 8.0 | 0.00 | 0.00 | 0.00 | 62 | 1020.6 |
| 20260906025804 | 22 | 275 | 6.4 | 9.7 | 0.00 | 0.00 | 0.00 | 62 | 1020.6 |
| 20260906025705 | 22 | 277 | 6.4 | 9.7 | 0.00 | 0.00 | 0.00 | 63 | 1020.6 |
| 20260906025604 | 22 | 279 | 6.4 | 9.7 | 0.00 | 0.00 | 0.00 | 63 | 1020.5 |
| 20260906025504 | 22 | 279 | 8.0 | 9.7 | 0.00 | 0.00 | 0.00 | 63 | 1020.6 |
| 20260906025404 | 22 | 283 | 8.0 | 9.7 | 0.00 | 0.00 | 0.00 | 63 | 1020.5 |
| 20260906025306 | 22 | 285 | 8.0 | 9.7 | 0.00 | 0.00 | 0.00 | 63 | 1020.7 |
| 20260906025104 | 22 | 288 | 8.0 | 9.7 | 0.00 | 0.00 | 0.00 | 64 | 1020.6 |
| 20260906025005 | 22 | 290 | 8.0 | 9.7 | 0.00 | 0.00 | 0.00 | 65 | 1020.5 |
| 20260906024904 | 22 | 291 | 8.0 | 9.7 | 0.00 | 0.00 | 0.00 | 65 | 1020.7 |
| 20260906024804 | 22 | 291 | 8.0 | 9.7 | 0.00 | 0.00 | 0.00 | 65 | 1020.7 |
| 20260906024505 | 22 | 291 | 6.4 | 8.0 | 0.00 | 0.00 | 0.00 | 65 | 1020.7 |
| 20260906024204 | 22 | 287 | 4.8 | 8.0 | 0.00 | 0.00 | 0.00 | 65 | 1020.7 |
| 20260906024104 | 22 | 294 | 4.8 | 6.4 | 0.00 | 0.00 | 0.00 | 64 | 1020.5 |
| 20260906024005 | 22 | 300 | 4.8 | 6.4 | 0.00 | 0.00 | 0.00 | 63 | 1020.6 |
| 20260906023904 | 22 | 300 | 4.8 | 4.8 | 0.00 | 0.00 | 0.00 | 63 | 1020.6 |
| 20260906023804 | 22 | 298 | 4.8 | 4.8 | 0.00 | 0.00 | 0.00 | 63 | 1020.5 |
| 20260906023704 | 23 | 296 | 4.8 | 4.8 | 0.00 | 0.00 | 0.00 | 62 | 1020.6 |
| 20260906023604 | 23 | 290 | 4.8 | 4.8 | 0.00 | 0.00 | 0.00 | 62 | 1020.4 |
| 20260906023504 | 23 | 285 | 4.8 | 6.4 | 0.00 | 0.00 | 0.00 | 62 | 1020.5 |
| 20260906023405 | 23 | 283 | 4.8 | 6.4 | 0.00 | 0.00 | 0.00 | 61 | 1020.2 |
| 20260906023304 | 23 | 279 | 6.4 | 8.0 | 0.00 | 0.00 | 0.00 | 60 | 1020.5 |
| 20260906023204 | 24 | 266 | 6.4 | 8.0 | 0.00 | 0.00 | 0.00 | 59 | 1020.4 |
| 20260906023105 | 24 | 263 | 6.4 | 8.0 | 0.00 | 0.00 | 0.00 | 58 | 1020.7 |
| 20260906023005 | 24 | 259 | 6.4 | 8.0 | 0.00 | 0.00 | 0.00 | 57 | 1020.4 |
| 20260906022904 | 24 | 255 | 6.4 | 8.0 | 0.00 | 0.00 | 0.00 | 57 | 1020.3 |
| 20260906022704 | 24 | 255 | 8.0 | 8.0 | 0.00 | 0.00 | 0.00 | 57 | 1020.3 |
| 20260906022604 | 24 | 256 | 8.0 | 8.0 | 0.00 | 0.00 | 0.00 | 57 | 1020.2 |
| 20260906022405 | 24 | 254 | 8.0 | 8.0 | 0.00 | 0.00 | 0.00 | 57 | 1020.2 |
| 20260906022306 | 24 | 252 | 8.0 | 9.7 | 0.00 | 0.00 | 0.00 | 57 | 1020.2 |
| 20260906022004 | 24 | 251 | 8.0 | 9.7 | 0.00 | 0.00 | 0.00 | 57 | 1020.0 |
| 20260906021904 | 24 | 251 | 8.0 | 9.7 | 0.00 | 0.00 | 0.00 | 57 | 1020.2 |
| 20260906021804 | 24 | 250 | 8.0 | 9.7 | 0.00 | 0.00 | 0.00 | 56 | 1020.1 |
| 20260906021704 | 25 | 250 | 8.0 | 9.7 | 0.00 | 0.00 | 0.00 | 57 | 1020.1 |
| 20260906021603 | 25 | 249 | 9.7 | 9.7 | 0.00 | 0.00 | 0.00 | 57 | 1019.9 |
| 20260906021504 | 25 | 249 | 9.7 | 9.7 | 0.00 | 0.00 | 0.00 | 57 | 1020.0 |
| 20260906021404 | 25 | 249 | 9.7 | 9.7 | 0.00 | 0.00 | 0.00 | 57 | 1019.9 |
| 20260906021304 | 25 | 249 | 8.0 | 9.7 | 0.00 | 0.00 | 0.00 | 56 | 1020.1 |
| 20260906021204 | 25 | 249 | 8.0 | 9.7 | 0.00 | 0.00 | 0.00 | 56 | 1019.9 |
| 20260906021104 | 25 | 246 | 9.7 | 11.3 | 0.00 | 0.00 | 0.00 | 56 | 1020.1 |
| 20260906021004 | 25 | 246 | 9.7 | 12.9 | 0.00 | 0.00 | 0.00 | 56 | 1020.0 |
| 20260906020904 | 25 | 246 | 9.7 | 12.9 | 0.00 | 0.00 | 0.00 | 56 | 1020.1 |
| 20260906020805 | 25 | 247 | 9.7 | 12.9 | 0.00 | 0.00 | 0.00 | 56 | 1020.0 |
| 20260906020604 | 25 | 248 | 11.3 | 12.9 | 0.00 | 0.00 | 0.00 | 55 | 1020.0 |
| 20260906020505 | 25 | 248 | 11.3 | 12.9 | 0.00 | 0.00 | 0.00 | 55 | 1020.1 |
| 20260906020404 | 25 | 248 | 11.3 | 12.9 | 0.00 | 0.00 | 0.00 | 56 | 1020.1 |
| 20260906020304 | 25 | 250 | 11.3 | 12.9 | 0.00 | 0.00 | 0.00 | 56 | 1019.9 |
| 20260906020204 | 25 | 250 | 12.9 | 12.9 | 0.00 | 0.00 | 0.00 | 56 | 1019.9 |
| 20260906020105 | 25 | 252 | 12.9 | 12.9 | 0.00 | 0.00 | 0.00 | 57 | 1019.9 |
| 20260906020005 | 24 | 253 | 11.3 | 12.9 | 0.00 | 0.00 | 0.00 | 57 | 1020.0 |
| 20260906015904 | 24 | 253 | 11.3 | 12.9 | 0.00 | 0.00 | 0.00 | 57 | 1019.9 |
| 20260906015804 | 24 | 253 | 11.3 | 12.9 | 0.00 | 0.00 | 0.00 | 57 | 1019.8 |
| 20260906015705 | 24 | 250 | 11.3 | 12.9 | 0.00 | 0.00 | 0.00 | 57 | 1020.1 |
| 20260906015604 | 25 | 250 | 11.3 | 12.9 | 0.00 | 0.00 | 0.00 | 57 | 1020.0 |
| 20260906015504 | 25 | 250 | 11.3 | 12.9 | 0.00 | 0.00 | 0.00 | 57 | 1019.9 |
| 20260906015404 | 25 | 250 | 9.7 | 12.9 | 0.00 | 0.00 | 0.00 | 57 | 1020.0 |
| 20260906015306 | 24 | 248 | 9.7 | 12.9 | 0.00 | 0.00 | 0.00 | 57 | 1020.0 |
| 20260906015205 | 24 | 247 | 9.7 | 12.9 | 0.00 | 0.00 | 0.00 | 58 | 1020.0 |
| 20260906015104 | 25 | 247 | 9.7 | 11.3 | 0.00 | 0.00 | 0.00 | 58 | 1020.0 |
| 20260906014904 | 25 | 247 | 9.7 | 11.3 | 0.00 | 0.00 | 0.00 | 57 | 1019.8 |
| 20260906014804 | 25 | 247 | 8.0 | 11.3 | 0.00 | 0.00 | 0.00 | 57 | 1020.1 |
| 20260906014704 | 25 | 250 | 8.0 | 11.3 | 0.00 | 0.00 | 0.00 | 57 | 1019.9 |
| 20260906014604 | 25 | 250 | 8.0 | 11.3 | 0.00 | 0.00 | 0.00 | 57 | 1020.0 |
| 20260906014504 | 25 | 251 | 8.0 | 11.3 | 0.00 | 0.00 | 0.00 | 57 | 1019.9 |
| 20260906014404 | 25 | 252 | 8.0 | 11.3 | 0.00 | 0.00 | 0.00 | 56 | 1020.0 |
| 20260906014304 | 25 | 253 | 8.0 | 11.3 | 0.00 | 0.00 | 0.00 | 56 | 1019.9 |
| 20260906014204 | 25 | 253 | 6.4 | 11.3 | 0.00 | 0.00 | 0.00 | 56 | 1019.9 |
| 20260906014105 | 25 | 253 | 6.4 | 11.3 | 0.00 | 0.00 | 0.00 | 56 | 1019.9 |
| 20260906013804 | 24 | 252 | 6.4 | 8.0 | 0.00 | 0.00 | 0.00 | 57 | 1020.0 |
| 20260906013705 | 24 | 249 | 6.4 | 8.0 | 0.00 | 0.00 | 0.00 | 57 | 1019.8 |
| 20260906013604 | 24 | 249 | 6.4 | 8.0 | 0.00 | 0.00 | 0.00 | 57 | 1019.9 |
| 20260906013504 | 24 | 248 | 4.8 | 6.4 | 0.00 | 0.00 | 0.00 | 57 | 1019.9 |
| 20260906013404 | 24 | 245 | 6.4 | 6.4 | 0.00 | 0.00 | 0.00 | 56 | 1019.8 |
| 20260906013304 | 24 | 242 | 4.8 | 6.4 | 0.00 | 0.00 | 0.00 | 57 | 1019.9 |
| 20260906013204 | 24 | 239 | 4.8 | 6.4 | 0.00 | 0.00 | 0.00 | 56 | 1020.0 |
| 20260906013104 | 24 | 238 | 4.8 | 6.4 | 0.00 | 0.00 | 0.00 | 57 | 1019.8 |
| 20260906013005 | 24 | 236 | 4.8 | 6.4 | 0.00 | 0.00 | 0.00 | 57 | 1019.8 |
| 20260906012904 | 23 | 234 | 4.8 | 6.4 | 0.00 | 0.00 | 0.00 | 57 | 1019.9 |
| 20260906012803 | 23 | 233 | 3.2 | 6.4 | 0.00 | 0.00 | 0.00 | 58 | 1019.8 |
| 20260906012704 | 23 | 232 | 3.2 | 6.4 | 0.00 | 0.00 | 0.00 | 58 | 1019.8 |
| 20260906012604 | 23 | 230 | 3.2 | 6.4 | 0.00 | 0.00 | 0.00 | 57 | 1019.8 |
| 20260906012404 | 23 | 230 | 3.2 | 3.2 | 0.00 | 0.00 | 0.00 | 58 | 1019.8 |
| 20260906012306 | 23 | 230 | 3.2 | 3.2 | 0.00 | 0.00 | 0.00 | 58 | 1019.9 |
| 20260906012204 | 23 | 232 | 1.6 | 3.2 | 0.00 | 0.00 | 0.00 | 57 | 1020.0 |
| 20260906012104 | 23 | 235 | 1.6 | 3.2 | 0.00 | 0.00 | 0.00 | 57 | 1019.9 |
| 20260906012004 | 23 | 237 | 1.6 | 3.2 | 0.00 | 0.00 | 0.00 | 57 | 1019.9 |
| 20260906011704 | 23 | 235 | 1.6 | 3.2 | 0.00 | 0.00 | 0.00 | 57 | 1019.9 |
| 20260906011506 | 23 | 213 | 1.6 | 3.2 | 0.00 | 0.00 | 0.00 | 58 | 1020.0 |
| 20260906011404 | 23 | 199 | 1.6 | 3.2 | 0.00 | 0.00 | 0.00 | 57 | 1019.9 |
| 20260906011304 | 23 | 186 | 0.0 | 3.2 | 0.00 | 0.00 | 0.00 | 57 | 1019.8 |
| 20260906011204 | 23 | 181 | 1.6 | 3.2 | 0.00 | 0.00 | 0.00 | 57 | 1019.9 |
| 20260906011104 | 23 | 184 | 1.6 | 3.2 | 0.00 | 0.00 | 0.00 | 57 | 1020.0 |
| 20260906011004 | 24 | 184 | 1.6 | 3.2 | 0.00 | 0.00 | 0.00 | 56 | 1019.8 |
| 20260906010904 | 24 | 187 | 1.6 | 3.2 | 0.00 | 0.00 | 0.00 | 56 | 1019.8 |
| 20260906010804 | 24 | 198 | 1.6 | 4.8 | 0.00 | 0.00 | 0.00 | 55 | 1020.1 |
| 20260906010704 | 24 | 207 | 1.6 | 4.8 | 0.00 | 0.00 | 0.00 | 55 | 1020.0 |
| 20260906010605 | 24 | 211 | 1.6 | 4.8 | 0.00 | 0.00 | 0.00 | 55 | 1019.9 |
| 20260906010504 | 25 | 220 | 1.6 | 4.8 | 0.00 | 0.00 | 0.00 | 54 | 1019.8 |
| 20260906010404 | 25 | 225 | 1.6 | 4.8 | 0.00 | 0.00 | 0.00 | 54 | 1019.9 |
| 20260906010305 | 25 | 234 | 3.2 | 6.4 | 0.00 | 0.00 | 0.00 | 54 | 1019.7 |
| 20260906010204 | 25 | 244 | 3.2 | 6.4 | 0.00 | 0.00 | 0.00 | 53 | 1019.9 |
| 20260906010104 | 25 | 245 | 3.2 | 8.0 | 0.00 | 0.00 | 0.00 | 53 | 1019.7 |
| 20260906010005 | 25 | 244 | 4.8 | 8.0 | 0.00 | 0.00 | 0.00 | 53 | 1019.9 |
| 20260906005904 | 25 | 242 | 4.8 | 8.0 | 0.00 | 0.00 | 0.00 | 53 | 1019.7 |
| 20260906005805 | 25 | 247 | 4.8 | 8.0 | 0.00 | 0.00 | 0.00 | 53 | 1019.8 |
| 20260906005704 | 25 | 245 | 4.8 | 9.7 | 0.00 | 0.00 | 0.00 | 52 | 1019.7 |
| 20260906005604 | 25 | 246 | 6.4 | 9.7 | 0.00 | 0.00 | 0.00 | 52 | 1019.9 |
| 20260906005505 | 26 | 249 | 6.4 | 11.3 | 0.00 | 0.00 | 0.00 | 52 | 1019.7 |
| 20260906005405 | 26 | 249 | 8.0 | 11.3 | 0.00 | 0.00 | 0.00 | 51 | 1020.0 |
| 20260906005306 | 26 | 251 | 8.0 | 11.3 | 0.00 | 0.00 | 0.00 | 51 | 1019.9 |
| 20260906005205 | 26 | 250 | 9.7 | 12.9 | 0.00 | 0.00 | 0.00 | 52 | 1019.8 |
| 20260906005004 | 26 | 251 | 9.7 | 12.9 | 0.00 | 0.00 | 0.00 | 51 | 1019.8 |
| 20260906004804 | 26 | 250 | 9.7 | 12.9 | 0.00 | 0.00 | 0.00 | 52 | 1019.8 |
| 20260906004704 | 26 | 253 | 9.7 | 12.9 | 0.00 | 0.00 | 0.00 | 51 | 1020.0 |
| 20260906004604 | 26 | 255 | 9.7 | 12.9 | 0.00 | 0.00 | 0.00 | 51 | 1019.8 |
| 20260906004505 | 26 | 253 | 9.7 | 12.9 | 0.00 | 0.00 | 0.00 | 52 | 1019.8 |
| 20260906004404 | 26 | 254 | 9.7 | 12.9 | 0.00 | 0.00 | 0.00 | 51 | 1019.7 |
| 20260906004304 | 26 | 252 | 9.7 | 12.9 | 0.00 | 0.00 | 0.00 | 52 | 1019.7 |
| 20260906004104 | 25 | 251 | 9.7 | 11.3 | 0.00 | 0.00 | 0.00 | 51 | 1019.9 |
| 20260906004004 | 25 | 250 | 8.0 | 9.7 | 0.00 | 0.00 | 0.00 | 51 | 1019.8 |
| 20260906003903 | 25 | 250 | 8.0 | 9.7 | 0.00 | 0.00 | 0.00 | 51 | 1019.9 |
| 20260906003804 | 25 | 251 | 6.4 | 9.7 | 0.00 | 0.00 | 0.00 | 51 | 1019.8 |
| 20260906003604 | 25 | 242 | 4.8 | 9.7 | 0.00 | 0.00 | 0.00 | 52 | 1019.8 |
| 20260906003504 | 25 | 240 | 4.8 | 9.7 | 0.00 | 0.00 | 0.00 | 52 | 1019.8 |
| 20260906003404 | 25 | 235 | 4.8 | 9.7 | 0.00 | 0.00 | 0.00 | 52 | 1019.6 |
| 20260906003304 | 25 | 231 | 3.2 | 9.7 | 0.00 | 0.00 | 0.00 | 53 | 1019.9 |
| 20260906003104 | 25 | 229 | 1.6 | 4.8 | 0.00 | 0.00 | 0.00 | 52 | 1019.9 |
| 20260906003005 | 25 | 230 | 1.6 | 3.2 | 0.00 | 0.00 | 0.00 | 52 | 1019.7 |
| 20260906002904 | 25 | 233 | 1.6 | 3.2 | 0.00 | 0.00 | 0.00 | 52 | 1019.8 |
| 20260906002805 | 25 | 236 | 1.6 | 3.2 | 0.00 | 0.00 | 0.00 | 51 | 1020.0 |
| 20260906002604 | 25 | 242 | 1.6 | 4.8 | 0.00 | 0.00 | 0.00 | 51 | 1020.0 |
| 20260906002504 | 25 | 243 | 1.6 | 4.8 | 0.00 | 0.00 | 0.00 | 51 | 1019.9 |
| 20260906002404 | 25 | 246 | 1.6 | 4.8 | 0.00 | 0.00 | 0.00 | 51 | 1019.9 |
| 20260906002104 | 25 | 246 | 1.6 | 4.8 | 0.00 | 0.00 | 0.00 | 51 | 1019.8 |
| 20260906002003 | 25 | 245 | 1.6 | 4.8 | 0.00 | 0.00 | 0.00 | 51 | 1019.9 |
| 20260906001904 | 25 | 244 | 1.6 | 4.8 | 0.00 | 0.00 | 0.00 | 52 | 1019.7 |
| 20260906001804 | 25 | 243 | 1.6 | 4.8 | 0.00 | 0.00 | 0.00 | 52 | 1019.9 |
| 20260906001704 | 25 | 242 | 1.6 | 6.4 | 0.00 | 0.00 | 0.00 | 52 | 1019.8 |
| 20260906001504 | 25 | 245 | 3.2 | 6.4 | 0.00 | 0.00 | 0.00 | 52 | 1019.9 |
| 20260906001404 | 25 | 245 | 3.2 | 6.4 | 0.00 | 0.00 | 0.00 | 52 | 1019.9 |
| 20260906001304 | 25 | 246 | 3.2 | 6.4 | 0.00 | 0.00 | 0.00 | 53 | 1019.9 |
| 20260906001104 | 25 | 247 | 4.8 | 6.4 | 0.00 | 0.00 | 0.00 | 53 | 1019.7 |
| 20260906001004 | 25 | 248 | 4.8 | 6.4 | 0.00 | 0.00 | 0.00 | 53 | 1019.7 |
| 20260906000904 | 25 | 247 | 6.4 | 6.4 | 0.00 | 0.00 | 0.00 | 52 | 1019.8 |
| 20260906000804 | 25 | 247 | 6.4 | 6.4 | 0.00 | 0.00 | 0.00 | 52 | 1019.8 |
| 20260906000704 | 26 | 247 | 6.4 | 6.4 | 0.00 | 0.00 | 0.00 | 50 | 1019.8 |
| 20260906000604 | 26 | 247 | 6.4 | 6.4 | 0.00 | 0.00 | 0.00 | 50 | 1019.8 |
| 20260906000504 | 26 | 247 | 6.4 | 8.0 | 0.00 | 0.00 | 0.00 | 50 | 1020.0 |
| 20260906000404 | 26 | 245 | 8.0 | 8.0 | 0.00 | 0.00 | 0.00 | 50 | 1019.8 |
| 20260906000304 | 26 | 245 | 8.0 | 8.0 | 0.00 | 0.00 | 0.00 | 50 | 1019.8 |
| 20260906000204 | 26 | 245 | 8.0 | 9.7 | 0.00 | 0.00 | 0.00 | 50 | 1019.9 |
| 20260906000104 | 26 | 247 | 8.0 | 9.7 | 0.00 | 0.00 | 0.00 | 50 | 1019.8 |
| 20260906000004 | 26 | 247 | 8.0 | 9.7 | 0.00 | 0.00 | 0.00 | 50 | 1019.7 |
| 20260905235804 | 26 | 247 | 8.0 | 9.7 | 0.00 | 0.00 | 0.00 | 50 | 1019.7 |
| 20260905235604 | 26 | 247 | 8.0 | 9.7 | 0.00 | 0.00 | 0.00 | 50 | 1019.6 |
| 20260905235505 | 26 | 247 | 6.4 | 9.7 | 0.00 | 0.00 | 0.00 | 50 | 1019.9 |
| 20260905235404 | 26 | 249 | 6.4 | 9.7 | 0.00 | 0.00 | 0.00 | 51 | 1019.7 |
| 20260905235306 | 26 | 250 | 6.4 | 9.7 | 0.00 | 0.00 | 0.00 | 51 | 1020.0 |
| 20260905235205 | 26 | 250 | 6.4 | 9.7 | 0.00 | 0.00 | 0.00 | 51 | 1019.7 |
| 20260905235104 | 26 | 247 | 6.4 | 8.0 | 0.00 | 0.00 | 0.00 | 51 | 1019.7 |
| 20260905235004 | 26 | 247 | 6.4 | 8.0 | 0.00 | 0.00 | 0.00 | 51 | 1019.6 |
| 20260905234804 | 26 | 248 | 6.4 | 6.4 | 0.00 | 0.00 | 0.00 | 50 | 1019.6 |
| 20260905234704 | 26 | 248 | 6.4 | 6.4 | 0.00 | 0.00 | 0.00 | 50 | 1019.9 |
| 20260905234604 | 26 | 248 | 6.4 | 6.4 | 0.00 | 0.00 | 0.00 | 50 | 1019.9 |
| 20260905234506 | 26 | 248 | 4.8 | 6.4 | 0.00 | 0.00 | 0.00 | 50 | 1019.6 |
| 20260905234404 | 26 | 248 | 4.8 | 6.4 | 0.00 | 0.00 | 0.00 | 50 | 1019.7 |
| 20260905234304 | 26 | 248 | 4.8 | 6.4 | 0.00 | 0.00 | 0.00 | 50 | 1019.8 |
| 20260905234104 | 25 | 248 | 4.8 | 6.4 | 0.00 | 0.00 | 0.00 | 50 | 1019.8 |
| 20260905234004 | 25 | 248 | 4.8 | 6.4 | 0.00 | 0.00 | 0.00 | 50 | 1019.7 |
| 20260905233904 | 25 | 248 | 4.8 | 6.4 | 0.00 | 0.00 | 0.00 | 51 | 1019.9 |
| 20260905233704 | 26 | 248 | 4.8 | 4.8 | 0.00 | 0.00 | 0.00 | 51 | 1019.7 |
| 20260905233504 | 26 | 248 | 3.2 | 4.8 | 0.00 | 0.00 | 0.00 | 50 | 1019.9 |
| 20260905233405 | 26 | 248 | 3.2 | 4.8 | 0.00 | 0.00 | 0.00 | 50 | 1019.8 |
| 20260905233304 | 26 | 248 | 3.2 | 4.8 | 0.00 | 0.00 | 0.00 | 49 | 1019.9 |
| 20260905233004 | 26 | 248 | 3.2 | 4.8 | 0.00 | 0.00 | 0.00 | 49 | 1019.9 |
| 20260905232904 | 25 | 248 | 3.2 | 4.8 | 0.00 | 0.00 | 0.00 | 48 | 1019.8 |
| 20260905232804 | 25 | 248 | 3.2 | 4.8 | 0.00 | 0.00 | 0.00 | 49 | 1019.8 |
| 20260905232704 | 26 | 248 | 3.2 | 4.8 | 0.00 | 0.00 | 0.00 | 49 | 1019.7 |
| 20260905232604 | 26 | 248 | 3.2 | 4.8 | 0.00 | 0.00 | 0.00 | 49 | 1019.6 |
| 20260905232204 | 26 | 250 | 4.8 | 6.4 | 0.00 | 0.00 | 0.00 | 48 | 1019.6 |
| 20260905232104 | 26 | 251 | 4.8 | 6.4 | 0.00 | 0.00 | 0.00 | 48 | 1019.9 |
| 20260905232004 | 26 | 251 | 4.8 | 6.4 | 0.00 | 0.00 | 0.00 | 48 | 1019.6 |
| 20260905231904 | 26 | 251 | 4.8 | 6.4 | 0.00 | 0.00 | 0.00 | 48 | 1019.8 |
| 20260905231805 | 26 | 251 | 4.8 | 6.4 | 0.00 | 0.00 | 0.00 | 48 | 1019.7 |
| 20260905231604 | 26 | 252 | 4.8 | 6.4 | 0.00 | 0.00 | 0.00 | 49 | 1019.6 |
| 20260905231505 | 26 | 252 | 4.8 | 6.4 | 0.00 | 0.00 | 0.00 | 48 | 1019.7 |
| 20260905231304 | 26 | 252 | 4.8 | 6.4 | 0.00 | 0.00 | 0.00 | 48 | 1019.8 |
| 20260905231204 | 26 | 253 | 4.8 | 6.4 | 0.00 | 0.00 | 0.00 | 48 | 1019.7 |
| 20260905231104 | 26 | 253 | 3.2 | 6.4 | 0.00 | 0.00 | 0.00 | 48 | 1019.8 |
| 20260905231004 | 26 | 253 | 3.2 | 6.4 | 0.00 | 0.00 | 0.00 | 48 | 1019.8 |
| 20260905230903 | 26 | 254 | 3.2 | 6.4 | 0.00 | 0.00 | 0.00 | 49 | 1019.9 |
| 20260905230804 | 26 | 255 | 1.6 | 4.8 | 0.00 | 0.00 | 0.00 | 50 | 1020.0 |
| 20260905230704 | 26 | 257 | 1.6 | 4.8 | 0.00 | 0.00 | 0.00 | 52 | 1019.6 |
| 20260905230604 | 26 | 260 | 1.6 | 4.8 | 0.00 | 0.00 | 0.00 | 53 | 1019.9 |
| 20260905230504 | 26 | 270 | 0.0 | 3.2 | 0.00 | 0.00 | 0.00 | 55 | 1019.6 |
| 20260905230404 | 26 | 270 | 0.0 | 3.2 | 0.00 | 0.00 | 0.00 | 53 | 1019.7 |
| 20260905230304 | 26 | 270 | 0.0 | 3.2 | 0.00 | 0.00 | 0.00 | 54 | 1019.8 |
| 20260905230203 | 26 | 270 | 0.0 | 1.6 | 0.00 | 0.00 | 0.00 | 55 | 1019.7 |
| 20260905230104 | 26 | 0 | 0.0 | 0.0 | 0.00 | 0.00 | 0.00 | 56 | 1019.7 |
| 20260905230005 | 26 | 0 | 0.0 | 0.0 | 0.00 | 0.00 | 0.00 | 55 | 1020.0 |
| 20260905225804 | 26 | 270 | 0.0 | 1.6 | 0.00 | 0.00 | 0.00 | 54 | 1019.9 |
| 20260905225604 | 26 | 270 | 0.0 | 1.6 | 0.00 | 0.00 | 0.00 | 55 | 1019.8 |
| 20260905225504 | 26 | 270 | 0.0 | 1.6 | 0.00 | 0.00 | 0.00 | 55 | 1019.8 |
| 20260905225404 | 26 | 270 | 0.0 | 1.6 | 0.00 | 0.00 | 0.00 | 54 | 1019.7 |
| 20260905225305 | 26 | 270 | 0.0 | 3.2 | 0.00 | 0.00 | 0.00 | 54 | 1019.7 |
| 20260905225204 | 26 | 270 | 1.6 | 3.2 | 0.00 | 0.00 | 0.00 | 54 | 1019.9 |
| 20260905225104 | 26 | 270 | 1.6 | 3.2 | 0.00 | 0.00 | 0.00 | 53 | 1019.9 |
| 20260905225004 | 26 | 270 | 1.6 | 3.2 | 0.00 | 0.00 | 0.00 | 53 | 1019.7 |
| 20260905224904 | 27 | 270 | 1.6 | 3.2 | 0.00 | 0.00 | 0.00 | 53 | 1019.9 |
| 20260905224804 | 27 | 270 | 1.6 | 3.2 | 0.00 | 0.00 | 0.00 | 53 | 1019.8 |
| 20260905224705 | 27 | 270 | 1.6 | 3.2 | 0.00 | 0.00 | 0.00 | 53 | 1019.8 |
| 20260905224605 | 27 | 270 | 1.6 | 3.2 | 0.00 | 0.00 | 0.00 | 53 | 1019.6 |
| 20260905224504 | 27 | 270 | 3.2 | 3.2 | 0.00 | 0.00 | 0.00 | 53 | 1019.7 |
| 20260905224403 | 27 | 270 | 3.2 | 3.2 | 0.00 | 0.00 | 0.00 | 53 | 1020.0 |
| 20260905224304 | 27 | 270 | 3.2 | 3.2 | 0.00 | 0.00 | 0.00 | 53 | 1019.7 |
| 20260905224204 | 27 | 270 | 3.2 | 3.2 | 0.00 | 0.00 | 0.00 | 53 | 1019.8 |
| 20260905224104 | 26 | 270 | 3.2 | 3.2 | 0.00 | 0.00 | 0.00 | 52 | 1019.7 |
| 20260905224004 | 26 | 268 | 3.2 | 3.2 | 0.00 | 0.00 | 0.00 | 52 | 1019.7 |
| 20260905223904 | 26 | 267 | 1.6 | 3.2 | 0.00 | 0.00 | 0.00 | 52 | 1019.7 |
| 20260905223804 | 26 | 265 | 1.6 | 3.2 | 0.00 | 0.00 | 0.00 | 52 | 1019.6 |
| 20260905223704 | 26 | 264 | 1.6 | 3.2 | 0.00 | 0.00 | 0.00 | 52 | 1019.6 |
| 20260905223604 | 26 | 263 | 1.6 | 3.2 | 0.00 | 0.00 | 0.00 | 52 | 1019.7 |
| 20260905223504 | 26 | 262 | 1.6 | 3.2 | 0.00 | 0.00 | 0.00 | 53 | 1019.5 |
| 20260905223404 | 26 | 261 | 1.6 | 3.2 | 0.00 | 0.00 | 0.00 | 53 | 1019.7 |
| 20260905223304 | 26 | 258 | 1.6 | 3.2 | 0.00 | 0.00 | 0.00 | 54 | 1019.8 |
| 20260905223204 | 26 | 254 | 1.6 | 3.2 | 0.00 | 0.00 | 0.00 | 55 | 1019.7 |
| 20260905223104 | 26 | 251 | 1.6 | 3.2 | 0.00 | 0.00 | 0.00 | 55 | 1019.6 |
| 20260905223005 | 26 | 248 | 1.6 | 3.2 | 0.00 | 0.00 | 0.00 | 55 | 1019.6 |
| 20260905222904 | 26 | 248 | 1.6 | 3.2 | 0.00 | 0.00 | 0.00 | 55 | 1019.8 |
| 20260905222803 | 26 | 248 | 1.6 | 3.2 | 0.00 | 0.00 | 0.00 | 54 | 1019.9 |
| 20260905222704 | 26 | 254 | 1.6 | 3.2 | 0.00 | 0.00 | 0.00 | 54 | 1019.5 |
| 20260905222604 | 26 | 257 | 1.6 | 3.2 | 0.00 | 0.00 | 0.00 | 54 | 1019.6 |
| 20260905222504 | 26 | 258 | 1.6 | 3.2 | 0.00 | 0.00 | 0.00 | 53 | 1019.9 |
| 20260905222404 | 26 | 258 | 1.6 | 3.2 | 0.00 | 0.00 | 0.00 | 53 | 1019.9 |
| 20260905222306 | 26 | 259 | 1.6 | 3.2 | 0.00 | 0.00 | 0.00 | 52 | 1019.7 |
| 20260905222104 | 26 | 260 | 1.6 | 3.2 | 0.00 | 0.00 | 0.00 | 52 | 1019.7 |
| 20260905222004 | 26 | 262 | 1.6 | 3.2 | 0.00 | 0.00 | 0.00 | 52 | 1019.5 |
| 20260905221803 | 26 | 269 | 1.6 | 3.2 | 0.00 | 0.00 | 0.00 | 51 | 1019.7 |
| 20260905221705 | 26 | 270 | 0.0 | 3.2 | 0.00 | 0.00 | 0.00 | 51 | 1019.7 |
| 20260905221605 | 26 | 270 | 0.0 | 3.2 | 0.00 | 0.00 | 0.00 | 50 | 1019.6 |
| 20260905221506 | 26 | 0 | 0.0 | 0.0 | 0.00 | 0.00 | 0.00 | 49 | 1019.7 |
| 20260905221404 | 26 | 270 | 0.0 | 3.2 | 0.00 | 0.00 | 0.00 | 51 | 1019.6 |
| 20260905221304 | 26 | 270 | 0.0 | 3.2 | 0.00 | 0.00 | 0.00 | 54 | 1019.6 |
| 20260905221204 | 26 | 270 | 0.0 | 3.2 | 0.00 | 0.00 | 0.00 | 53 | 1019.6 |
| 20260905221104 | 26 | 270 | 0.0 | 3.2 | 0.00 | 0.00 | 0.00 | 54 | 1019.5 |
| 20260905221004 | 26 | 270 | 0.0 | 3.2 | 0.00 | 0.00 | 0.00 | 54 | 1019.6 |
| 20260905220904 | 26 | 270 | 0.0 | 3.2 | 0.00 | 0.00 | 0.00 | 55 | 1019.6 |
| 20260905220804 | 26 | 270 | 0.0 | 3.2 | 0.00 | 0.00 | 0.00 | 55 | 1019.5 |
| 20260905220705 | 26 | 270 | 0.0 | 3.2 | 0.00 | 0.00 | 0.00 | 55 | 1019.5 |
| 20260905220604 | 26 | 270 | 0.0 | 3.2 | 0.00 | 0.00 | 0.00 | 54 | 1019.7 |
| 20260905220404 | 26 | 270 | 1.6 | 3.2 | 0.00 | 0.00 | 0.00 | 54 | 1019.6 |
| 20260905220304 | 26 | 270 | 1.6 | 3.2 | 0.00 | 0.00 | 0.00 | 54 | 1019.5 |
| 20260905220204 | 26 | 270 | 1.6 | 3.2 | 0.00 | 0.00 | 0.00 | 54 | 1019.5 |
| 20260905220104 | 26 | 270 | 1.6 | 3.2 | 0.00 | 0.00 | 0.00 | 55 | 1019.6 |
| 20260905220008 | 26 | 270 | 1.6 | 3.2 | 0.00 | 0.00 | 0.00 | 54 | 1019.3 |
| 20260905215805 | 26 | 270 | 1.6 | 3.2 | 0.00 | 0.00 | 0.00 | 54 | 1019.7 |
| 20260905215703 | 26 | 270 | 1.6 | 3.2 | 0.00 | 0.00 | 0.00 | 54 | 1019.5 |
| 20260905215604 | 26 | 270 | 1.6 | 3.2 | 0.00 | 0.00 | 0.00 | 53 | 1019.5 |
| 20260905215504 | 26 | 270 | 1.6 | 3.2 | 0.00 | 0.00 | 0.00 | 53 | 1019.6 |
| 20260905215306 | 26 | 270 | 0.0 | 3.2 | 0.00 | 0.00 | 0.00 | 51 | 1019.6 |
| 20260905215204 | 26 | 270 | 0.0 | 3.2 | 0.00 | 0.00 | 0.00 | 51 | 1019.4 |
| 20260905215004 | 26 | 0 | 0.0 | 0.0 | 0.00 | 0.00 | 0.00 | 50 | 1019.4 |
| 20260905214904 | 27 | 0 | 0.0 | 0.0 | 0.00 | 0.00 | 0.00 | 49 | 1019.5 |
| 20260905214804 | 27 | 0 | 0.0 | 0.0 | 0.00 | 0.00 | 0.00 | 49 | 1019.5 |
| 20260905214704 | 27 | 0 | 0.0 | 0.0 | 0.00 | 0.00 | 0.00 | 49 | 1019.6 |
| 20260905214604 | 27 | 0 | 0.0 | 0.0 | 0.00 | 0.00 | 0.00 | 49 | 1019.4 |
| 20260905214505 | 27 | 0 | 0.0 | 0.0 | 0.00 | 0.00 | 0.00 | 49 | 1019.4 |
| 20260905214404 | 27 | 0 | 0.0 | 0.0 | 0.00 | 0.00 | 0.00 | 49 | 1019.4 |
| 20260905214304 | 27 | 0 | 0.0 | 0.0 | 0.00 | 0.00 | 0.00 | 48 | 1019.3 |
| 20260905214004 | 27 | 0 | 0.0 | 0.0 | 0.00 | 0.00 | 0.00 | 48 | 1019.5 |
| 20260905213904 | 27 | 0 | 0.0 | 0.0 | 0.00 | 0.00 | 0.00 | 48 | 1019.4 |
| 20260905213805 | 27 | 0 | 0.0 | 0.0 | 0.00 | 0.00 | 0.00 | 48 | 1019.3 |
| 20260905213704 | 27 | 0 | 0.0 | 0.0 | 0.00 | 0.00 | 0.00 | 47 | 1019.3 |
| 20260905213504 | 27 | 0 | 0.0 | 0.0 | 0.00 | 0.00 | 0.00 | 47 | 1019.5 |
| 20260905213404 | 27 | 0 | 0.0 | 0.0 | 0.00 | 0.00 | 0.00 | 47 | 1019.3 |
| 20260905213304 | 27 | 0 | 0.0 | 0.0 | 0.00 | 0.00 | 0.00 | 46 | 1019.4 |
| 20260905213204 | 27 | 0 | 0.0 | 0.0 | 0.00 | 0.00 | 0.00 | 46 | 1019.4 |
| 20260905213103 | 27 | 0 | 0.0 | 0.0 | 0.00 | 0.00 | 0.00 | 46 | 1019.3 |
| 20260905213004 | 27 | 0 | 0.0 | 0.0 | 0.00 | 0.00 | 0.00 | 46 | 1019.3 |
| 20260905212904 | 27 | 0 | 0.0 | 0.0 | 0.00 | 0.00 | 0.00 | 47 | 1019.3 |
| 20260905212803 | 27 | 0 | 0.0 | 0.0 | 0.00 | 0.00 | 0.00 | 47 | 1019.2 |
| 20260905212704 | 27 | 0 | 0.0 | 0.0 | 0.00 | 0.00 | 0.00 | 47 | 1019.4 |
| 20260905212504 | 27 | 0 | 0.0 | 0.0 | 0.00 | 0.00 | 0.00 | 45 | 1019.4 |
| 20260905212404 | 27 | 0 | 0.0 | 0.0 | 0.00 | 0.00 | 0.00 | 45 | 1019.6 |
| 20260905212306 | 27 | 0 | 0.0 | 0.0 | 0.00 | 0.00 | 0.00 | 45 | 1019.4 |
| 20260905212204 | 27 | 0 | 0.0 | 0.0 | 0.00 | 0.00 | 0.00 | 45 | 1019.4 |
| 20260905212104 | 27 | 270 | 0.0 | 3.2 | 0.00 | 0.00 | 0.00 | 45 | 1019.4 |
| 20260905212004 | 27 | 270 | 0.0 | 3.2 | 0.00 | 0.00 | 0.00 | 45 | 1019.4 |
| 20260905211904 | 27 | 270 | 0.0 | 3.2 | 0.00 | 0.00 | 0.00 | 45 | 1019.2 |
| 20260905211804 | 27 | 270 | 1.6 | 3.2 | 0.00 | 0.00 | 0.00 | 45 | 1019.4 |
| 20260905211705 | 27 | 270 | 1.6 | 3.2 | 0.00 | 0.00 | 0.00 | 45 | 1019.3 |
| 20260905211604 | 27 | 270 | 1.6 | 3.2 | 0.00 | 0.00 | 0.00 | 45 | 1019.4 |
| 20260905211504 | 27 | 270 | 1.6 | 3.2 | 0.00 | 0.00 | 0.00 | 45 | 1019.4 |
| 20260905211304 | 27 | 270 | 1.6 | 3.2 | 0.00 | 0.00 | 0.00 | 46 | 1019.4 |
| 20260905211104 | 27 | 270 | 1.6 | 3.2 | 0.00 | 0.00 | 0.00 | 45 | 1019.2 |
| 20260905211004 | 27 | 270 | 1.6 | 3.2 | 0.00 | 0.00 | 0.00 | 44 | 1019.5 |
| 20260905210804 | 27 | 270 | 1.6 | 3.2 | 0.00 | 0.00 | 0.00 | 44 | 1019.2 |
| 20260905210703 | 27 | 270 | 1.6 | 3.2 | 0.00 | 0.00 | 0.00 | 44 | 1019.4 |
| 20260905210604 | 27 | 270 | 1.6 | 3.2 | 0.00 | 0.00 | 0.00 | 44 | 1019.2 |
| 20260905210504 | 27 | 270 | 1.6 | 3.2 | 0.00 | 0.00 | 0.00 | 44 | 1019.3 |
| 20260905210404 | 27 | 270 | 1.6 | 3.2 | 0.00 | 0.00 | 0.00 | 44 | 1019.4 |
| 20260905210303 | 27 | 270 | 1.6 | 3.2 | 0.00 | 0.00 | 0.00 | 44 | 1019.2 |
| 20260905210204 | 27 | 270 | 1.6 | 3.2 | 0.00 | 0.00 | 0.00 | 44 | 1019.2 |
| 20260905210104 | 27 | 270 | 1.6 | 3.2 | 0.00 | 0.00 | 0.00 | 44 | 1019.3 |
| 20260905210004 | 27 | 270 | 1.6 | 3.2 | 0.00 | 0.00 | 0.00 | 44 | 1019.2 |
| 20260905205904 | 27 | 270 | 1.6 | 3.2 | 0.00 | 0.00 | 0.00 | 44 | 1019.3 |
| 20260905205804 | 27 | 270 | 1.6 | 3.2 | 0.00 | 0.00 | 0.00 | 44 | 1019.3 |
| 20260905205704 | 27 | 270 | 1.6 | 3.2 | 0.00 | 0.00 | 0.00 | 45 | 1019.2 |
| 20260905205504 | 27 | 270 | 0.0 | 3.2 | 0.00 | 0.00 | 0.00 | 45 | 1019.2 |
| 20260905205404 | 27 | 270 | 0.0 | 3.2 | 0.00 | 0.00 | 0.00 | 44 | 1019.4 |
| 20260905205306 | 27 | 270 | 0.0 | 3.2 | 0.00 | 0.00 | 0.00 | 45 | 1019.2 |
| 20260905205203 | 27 | 270 | 0.0 | 3.2 | 0.00 | 0.00 | 0.00 | 45 | 1019.5 |
| 20260905205104 | 27 | 270 | 0.0 | 3.2 | 0.00 | 0.00 | 0.00 | 46 | 1019.2 |
| 20260905205004 | 27 | 270 | 0.0 | 1.6 | 0.00 | 0.00 | 0.00 | 46 | 1019.5 |
| 20260905204904 | 27 | 270 | 0.0 | 1.6 | 0.00 | 0.00 | 0.00 | 46 | 1019.3 |
| 20260905204804 | 27 | 270 | 0.0 | 1.6 | 0.00 | 0.00 | 0.00 | 46 | 1019.2 |
| 20260905204703 | 27 | 270 | 0.0 | 3.2 | 0.00 | 0.00 | 0.00 | 45 | 1019.3 |
| 20260905204604 | 27 | 270 | 0.0 | 3.2 | 0.00 | 0.00 | 0.00 | 45 | 1019.2 |
| 20260905204505 | 27 | 270 | 1.6 | 3.2 | 0.00 | 0.00 | 0.00 | 45 | 1019.2 |
| 20260905204404 | 27 | 270 | 1.6 | 3.2 | 0.00 | 0.00 | 0.00 | 45 | 1019.2 |
| 20260905204304 | 27 | 270 | 1.6 | 3.2 | 0.00 | 0.00 | 0.00 | 46 | 1019.2 |
| 20260905204203 | 27 | 270 | 1.6 | 3.2 | 0.00 | 0.00 | 0.00 | 45 | 1019.4 |
| 20260905204104 | 27 | 270 | 1.6 | 3.2 | 0.00 | 0.00 | 0.00 | 45 | 1019.1 |
| 20260905204004 | 27 | 270 | 1.6 | 3.2 | 0.00 | 0.00 | 0.00 | 45 | 1019.2 |
| 20260905203904 | 27 | 270 | 3.2 | 3.2 | 0.00 | 0.00 | 0.00 | 46 | 1019.2 |
| 20260905203803 | 27 | 270 | 3.2 | 3.2 | 0.00 | 0.00 | 0.00 | 46 | 1019.3 |
| 20260905203704 | 27 | 270 | 3.2 | 3.2 | 0.00 | 0.00 | 0.00 | 45 | 1019.2 |
| 20260905203604 | 27 | 270 | 3.2 | 3.2 | 0.00 | 0.00 | 0.00 | 45 | 1019.3 |
| 20260905203504 | 27 | 270 | 1.6 | 3.2 | 0.00 | 0.00 | 0.00 | 45 | 1019.2 |
| 20260905203404 | 27 | 270 | 1.6 | 3.2 | 0.00 | 0.00 | 0.00 | 45 | 1019.3 |
| 20260905203304 | 27 | 270 | 1.6 | 3.2 | 0.00 | 0.00 | 0.00 | 45 | 1019.3 |
| 20260905203204 | 27 | 270 | 1.6 | 3.2 | 0.00 | 0.00 | 0.00 | 45 | 1019.3 |
| 20260905203104 | 27 | 270 | 1.6 | 3.2 | 0.00 | 0.00 | 0.00 | 45 | 1019.3 |
| 20260905203005 | 27 | 270 | 1.6 | 3.2 | 0.00 | 0.00 | 0.00 | 45 | 1019.2 |
| 20260905202904 | 27 | 270 | 1.6 | 3.2 | 0.00 | 0.00 | 0.00 | 45 | 1019.3 |
| 20260905202803 | 27 | 274 | 1.6 | 3.2 | 0.00 | 0.00 | 0.00 | 45 | 1019.5 |
| 20260905202604 | 27 | 282 | 1.6 | 3.2 | 0.00 | 0.00 | 0.00 | 44 | 1019.4 |
| 20260905202504 | 27 | 283 | 1.6 | 3.2 | 0.00 | 0.00 | 0.00 | 44 | 1019.3 |
| 20260905202404 | 27 | 283 | 1.6 | 3.2 | 0.00 | 0.00 | 0.00 | 44 | 1019.2 |
| 20260905202306 | 27 | 284 | 1.6 | 3.2 | 0.00 | 0.00 | 0.00 | 45 | 1019.3 |
| 20260905202203 | 27 | 290 | 1.6 | 3.2 | 0.00 | 0.00 | 0.00 | 45 | 1019.3 |
| 20260905202105 | 27 | 303 | 1.6 | 3.2 | 0.00 | 0.00 | 0.00 | 45 | 1019.2 |
| 20260905202004 | 27 | 318 | 1.6 | 3.2 | 0.00 | 0.00 | 0.00 | 45 | 1019.3 |
| 20260905201903 | 27 | 330 | 1.6 | 3.2 | 0.00 | 0.00 | 0.00 | 45 | 1019.2 |
| 20260905201804 | 27 | 347 | 0.0 | 3.2 | 0.00 | 0.00 | 0.00 | 45 | 1019.3 |
| 20260905201704 | 27 | 1 | 0.0 | 3.2 | 0.00 | 0.00 | 0.00 | 45 | 1019.2 |
| 20260905201605 | 27 | 1 | 0.0 | 3.2 | 0.00 | 0.00 | 0.00 | 45 | 1019.4 |
| 20260905201505 | 27 | 1 | 0.0 | 3.2 | 0.00 | 0.00 | 0.00 | 45 | 1019.3 |
| 20260905201404 | 27 | 1 | 0.0 | 3.2 | 0.00 | 0.00 | 0.00 | 46 | 1019.3 |
| 20260905201304 | 27 | 1 | 0.0 | 3.2 | 0.00 | 0.00 | 0.00 | 46 | 1019.3 |
| 20260905201204 | 27 | 1 | 0.0 | 3.2 | 0.00 | 0.00 | 0.00 | 46 | 1019.0 |
| 20260905201104 | 27 | 1 | 0.0 | 3.2 | 0.00 | 0.00 | 0.00 | 45 | 1019.3 |
| 20260905201004 | 27 | 0 | 0.0 | 0.0 | 0.00 | 0.00 | 0.00 | 45 | 1019.1 |
| 20260905200904 | 27 | 0 | 0.0 | 0.0 | 0.00 | 0.00 | 0.00 | 44 | 1019.1 |
| 20260905200704 | 27 | 0 | 0.0 | 0.0 | 0.00 | 0.00 | 0.00 | 44 | 1019.1 |
| 20260905200604 | 28 | 0 | 0.0 | 0.0 | 0.00 | 0.00 | 0.00 | 43 | 1019.4 |
| 20260905200504 | 28 | 0 | 0.0 | 0.0 | 0.00 | 0.00 | 0.00 | 43 | 1019.1 |
| 20260905200304 | 28 | 0 | 0.0 | 0.0 | 0.00 | 0.00 | 0.00 | 42 | 1019.1 |
| 20260905200104 | 28 | 0 | 0.0 | 0.0 | 0.00 | 0.00 | 0.00 | 42 | 1019.0 |
| 20260905200005 | 28 | 270 | 0.0 | 1.6 | 0.00 | 0.00 | 0.00 | 42 | 1019.2 |
| 20260905195904 | 28 | 270 | 0.0 | 3.2 | 0.00 | 0.00 | 0.00 | 43 | 1019.0 |
| 20260905195504 | 28 | 276 | 3.2 | 6.4 | 0.00 | 0.00 | 0.00 | 42 | 1019.1 |
| 20260905195403 | 28 | 275 | 3.2 | 6.4 | 0.00 | 0.00 | 0.00 | 42 | 1019.1 |
| 20260905195306 | 28 | 274 | 3.2 | 6.4 | 0.00 | 0.00 | 0.00 | 42 | 1019.1 |
| 20260905195205 | 28 | 274 | 4.8 | 6.4 | 0.00 | 0.00 | 0.00 | 43 | 1019.1 |
| 20260905195104 | 27 | 273 | 4.8 | 6.4 | 0.00 | 0.00 | 0.00 | 43 | 1019.0 |
| 20260905195004 | 27 | 275 | 4.8 | 6.4 | 0.00 | 0.00 | 0.00 | 42 | 1019.0 |
| 20260905194904 | 27 | 276 | 4.8 | 6.4 | 0.00 | 0.00 | 0.00 | 44 | 1019.2 |
| 20260905194803 | 27 | 274 | 4.8 | 6.4 | 0.00 | 0.00 | 0.00 | 44 | 1018.9 |
| 20260905194604 | 27 | 274 | 3.2 | 6.4 | 0.00 | 0.00 | 0.00 | 45 | 1019.1 |
| 20260905194304 | 28 | 276 | 1.6 | 6.4 | 0.00 | 0.00 | 0.00 | 44 | 1019.1 |
| 20260905194204 | 28 | 280 | 1.6 | 6.4 | 0.00 | 0.00 | 0.00 | 44 | 1019.0 |
| 20260905194004 | 28 | 292 | 0.0 | 3.2 | 0.00 | 0.00 | 0.00 | 43 | 1019.2 |
| 20260905193904 | 28 | 0 | 0.0 | 0.0 | 0.00 | 0.00 | 0.00 | 43 | 1019.0 |
| 20260905193803 | 28 | 94 | 0.0 | 4.8 | 0.00 | 0.00 | 0.00 | 43 | 1019.3 |
| 20260905193704 | 28 | 105 | 1.6 | 4.8 | 0.00 | 0.00 | 0.00 | 42 | 1019.2 |
| 20260905193604 | 28 | 116 | 1.6 | 4.8 | 0.00 | 0.00 | 0.00 | 42 | 1019.1 |
| 20260905193504 | 28 | 121 | 1.6 | 4.8 | 0.00 | 0.00 | 0.00 | 42 | 1019.1 |
| 20260905193403 | 28 | 123 | 3.2 | 4.8 | 0.00 | 0.00 | 0.00 | 42 | 1019.0 |
| 20260905193204 | 28 | 119 | 3.2 | 6.4 | 0.00 | 0.00 | 0.00 | 42 | 1019.1 |
| 20260905193104 | 28 | 117 | 4.8 | 8.0 | 0.00 | 0.00 | 0.00 | 42 | 1018.9 |
| 20260905193004 | 28 | 117 | 4.8 | 9.7 | 0.00 | 0.00 | 0.00 | 42 | 1019.0 |
| 20260905192904 | 28 | 116 | 6.4 | 9.7 | 0.00 | 0.00 | 0.00 | 42 | 1019.0 |
| 20260905192804 | 28 | 117 | 6.4 | 9.7 | 0.00 | 0.00 | 0.00 | 41 | 1019.0 |
| 20260905192703 | 28 | 119 | 6.4 | 9.7 | 0.00 | 0.00 | 0.00 | 42 | 1019.0 |
| 20260905192604 | 28 | 116 | 8.0 | 9.7 | 0.00 | 0.00 | 0.00 | 42 | 1018.9 |
| 20260905192403 | 28 | 116 | 8.0 | 11.3 | 0.00 | 0.00 | 0.00 | 41 | 1018.9 |
| 20260905192306 | 28 | 113 | 9.7 | 12.9 | 0.00 | 0.00 | 0.00 | 41 | 1018.8 |
| 20260905192103 | 28 | 115 | 9.7 | 12.9 | 0.00 | 0.00 | 0.00 | 42 | 1018.9 |
| 20260905191804 | 28 | 113 | 9.7 | 12.9 | 0.00 | 0.00 | 0.00 | 41 | 1019.0 |
| 20260905191703 | 28 | 111 | 9.7 | 12.9 | 0.00 | 0.00 | 0.00 | 41 | 1018.8 |
| 20260905191604 | 28 | 111 | 9.7 | 12.9 | 0.00 | 0.00 | 0.00 | 41 | 1018.8 |
| 20260905191505 | 28 | 112 | 9.7 | 12.9 | 0.00 | 0.00 | 0.00 | 42 | 1018.7 |
| 20260905191404 | 28 | 109 | 9.7 | 12.9 | 0.00 | 0.00 | 0.00 | 42 | 1018.6 |
| 20260905191204 | 28 | 108 | 11.3 | 16.1 | 0.00 | 0.00 | 0.00 | 43 | 1018.7 |
| 20260905191104 | 28 | 108 | 11.3 | 16.1 | 0.00 | 0.00 | 0.00 | 43 | 1018.5 |
| 20260905191003 | 28 | 110 | 11.3 | 16.1 | 0.00 | 0.00 | 0.00 | 43 | 1018.5 |
| 20260905190904 | 28 | 111 | 12.9 | 16.1 | 0.00 | 0.00 | 0.00 | 43 | 1018.8 |
| 20260905190803 | 28 | 113 | 12.9 | 16.1 | 0.00 | 0.00 | 0.00 | 43 | 1018.7 |
| 20260905190704 | 28 | 113 | 12.9 | 16.1 | 0.00 | 0.00 | 0.00 | 43 | 1018.8 |
| 20260905190604 | 28 | 113 | 12.9 | 16.1 | 0.00 | 0.00 | 0.00 | 43 | 1018.6 |
| 20260905190503 | 28 | 113 | 12.9 | 16.1 | 0.00 | 0.00 | 0.00 | 43 | 1018.6 |
| 20260905190404 | 28 | 112 | 12.9 | 16.1 | 0.00 | 0.00 | 0.00 | 43 | 1018.5 |
| 20260905190304 | 28 | 112 | 12.9 | 16.1 | 0.00 | 0.00 | 0.00 | 43 | 1018.8 |
| 20260905190204 | 28 | 113 | 12.9 | 16.1 | 0.00 | 0.00 | 0.00 | 43 | 1018.7 |
| 20260905190104 | 28 | 113 | 12.9 | 14.5 | 0.00 | 0.00 | 0.00 | 43 | 1018.5 |
| 20260905190004 | 28 | 113 | 12.9 | 14.5 | 0.00 | 0.00 | 0.00 | 43 | 1018.6 |
| 20260905185903 | 28 | 112 | 12.9 | 12.9 | 0.00 | 0.00 | 0.00 | 44 | 1018.7 |
| 20260905185804 | 28 | 110 | 12.9 | 12.9 | 0.00 | 0.00 | 0.00 | 44 | 1018.7 |
| 20260905185704 | 28 | 109 | 12.9 | 12.9 | 0.00 | 0.00 | 0.00 | 44 | 1018.6 |
| 20260905185603 | 28 | 108 | 12.9 | 14.5 | 0.00 | 0.00 | 0.00 | 44 | 1018.7 |
| 20260905185504 | 28 | 111 | 12.9 | 14.5 | 0.00 | 0.00 | 0.00 | 45 | 1018.7 |
| 20260905185404 | 28 | 112 | 12.9 | 14.5 | 0.00 | 0.00 | 0.00 | 45 | 1018.7 |
| 20260905185306 | 28 | 113 | 12.9 | 14.5 | 0.00 | 0.00 | 0.00 | 44 | 1018.7 |
| 20260905185204 | 28 | 114 | 12.9 | 14.5 | 0.00 | 0.00 | 0.00 | 45 | 1018.6 |
| 20260905185103 | 28 | 115 | 12.9 | 14.5 | 0.00 | 0.00 | 0.00 | 45 | 1018.4 |
| 20260905185004 | 28 | 113 | 12.9 | 14.5 | 0.00 | 0.00 | 0.00 | 45 | 1018.5 |
| 20260905184905 | 28 | 113 | 12.9 | 14.5 | 0.00 | 0.00 | 0.00 | 46 | 1018.6 |
| 20260905184803 | 28 | 115 | 12.9 | 14.5 | 0.00 | 0.00 | 0.00 | 46 | 1018.5 |
| 20260905184704 | 28 | 115 | 12.9 | 14.5 | 0.00 | 0.00 | 0.00 | 46 | 1018.5 |
| 20260905184604 | 28 | 116 | 12.9 | 14.5 | 0.00 | 0.00 | 0.00 | 46 | 1018.5 |
| 20260905184403 | 28 | 113 | 12.9 | 12.9 | 0.00 | 0.00 | 0.00 | 46 | 1018.4 |
| 20260905184304 | 28 | 111 | 12.9 | 12.9 | 0.00 | 0.00 | 0.00 | 46 | 1018.5 |
| 20260905184205 | 28 | 109 | 11.3 | 12.9 | 0.00 | 0.00 | 0.00 | 46 | 1018.5 |
| 20260905184103 | 28 | 108 | 11.3 | 12.9 | 0.00 | 0.00 | 0.00 | 46 | 1018.6 |
| 20260905184004 | 28 | 107 | 11.3 | 12.9 | 0.00 | 0.00 | 0.00 | 46 | 1018.4 |
| 20260905183804 | 28 | 105 | 11.3 | 12.9 | 0.00 | 0.00 | 0.00 | 46 | 1018.5 |
| 20260905183704 | 28 | 106 | 11.3 | 12.9 | 0.00 | 0.00 | 0.00 | 46 | 1018.4 |
| 20260905183603 | 28 | 106 | 11.3 | 12.9 | 0.00 | 0.00 | 0.00 | 45 | 1018.5 |
| 20260905183404 | 28 | 107 | 9.7 | 12.9 | 0.00 | 0.00 | 0.00 | 45 | 1018.4 |
| 20260905183304 | 28 | 109 | 9.7 | 11.3 | 0.00 | 0.00 | 0.00 | 45 | 1018.4 |
| 20260905183204 | 28 | 109 | 9.7 | 11.3 | 0.00 | 0.00 | 0.00 | 46 | 1018.4 |
| 20260905183103 | 28 | 110 | 9.7 | 11.3 | 0.00 | 0.00 | 0.00 | 46 | 1018.3 |
| 20260905183004 | 28 | 113 | 9.7 | 11.3 | 0.00 | 0.00 | 0.00 | 46 | 1018.6 |
| 20260905182905 | 28 | 113 | 9.7 | 11.3 | 0.00 | 0.00 | 0.00 | 46 | 1018.4 |
| 20260905182804 | 28 | 113 | 8.0 | 11.3 | 0.00 | 0.00 | 0.00 | 45 | 1018.4 |
| 20260905182703 | 28 | 109 | 8.0 | 9.7 | 0.00 | 0.00 | 0.00 | 46 | 1018.4 |
| 20260905182604 | 28 | 109 | 8.0 | 9.7 | 0.00 | 0.00 | 0.00 | 46 | 1018.4 |
| 20260905182305 | 28 | 108 | 8.0 | 9.7 | 0.00 | 0.00 | 0.00 | 46 | 1018.4 |
| 20260905182204 | 28 | 108 | 8.0 | 9.7 | 0.00 | 0.00 | 0.00 | 45 | 1018.5 |
| 20260905182104 | 28 | 107 | 8.0 | 9.7 | 0.00 | 0.00 | 0.00 | 45 | 1018.4 |
| 20260905182004 | 28 | 104 | 8.0 | 9.7 | 0.00 | 0.00 | 0.00 | 46 | 1018.3 |
| 20260905181904 | 28 | 104 | 8.0 | 9.7 | 0.00 | 0.00 | 0.00 | 46 | 1018.3 |
| 20260905181805 | 28 | 104 | 8.0 | 9.7 | 0.00 | 0.00 | 0.00 | 46 | 1018.3 |
| 20260905181705 | 28 | 106 | 9.7 | 11.3 | 0.00 | 0.00 | 0.00 | 45 | 1018.2 |
| 20260905181604 | 28 | 105 | 9.7 | 11.3 | 0.00 | 0.00 | 0.00 | 46 | 1018.3 |
| 20260905181504 | 28 | 105 | 9.7 | 11.3 | 0.00 | 0.00 | 0.00 | 46 | 1018.3 |
| 20260905181403 | 28 | 104 | 9.7 | 11.3 | 0.00 | 0.00 | 0.00 | 45 | 1018.5 |
| 20260905181304 | 28 | 102 | 9.7 | 11.3 | 0.00 | 0.00 | 0.00 | 45 | 1018.2 |
| 20260905181204 | 28 | 101 | 9.7 | 11.3 | 0.00 | 0.00 | 0.00 | 45 | 1018.2 |
| 20260905181004 | 28 | 102 | 9.7 | 11.3 | 0.00 | 0.00 | 0.00 | 45 | 1018.4 |
| 20260905180904 | 28 | 101 | 9.7 | 11.3 | 0.00 | 0.00 | 0.00 | 45 | 1018.2 |
| 20260905180804 | 28 | 100 | 9.7 | 11.3 | 0.00 | 0.00 | 0.00 | 45 | 1018.3 |
| 20260905180604 | 29 | 99 | 9.7 | 11.3 | 0.00 | 0.00 | 0.00 | 45 | 1018.2 |
| 20260905180504 | 29 | 98 | 9.7 | 11.3 | 0.00 | 0.00 | 0.00 | 45 | 1018.1 |
| 20260905180403 | 29 | 99 | 9.7 | 11.3 | 0.00 | 0.00 | 0.00 | 45 | 1018.0 |
| 20260905180204 | 29 | 97 | 9.7 | 11.3 | 0.00 | 0.00 | 0.00 | 45 | 1018.2 |
| 20260905180103 | 29 | 95 | 9.7 | 11.3 | 0.00 | 0.00 | 0.00 | 45 | 1018.0 |
| 20260905180005 | 29 | 95 | 9.7 | 11.3 | 0.00 | 0.00 | 0.00 | 45 | 1018.1 |
| 20260905175904 | 29 | 95 | 9.7 | 11.3 | 0.00 | 0.00 | 0.00 | 44 | 1018.3 |
| 20260905175803 | 29 | 95 | 9.7 | 11.3 | 0.00 | 0.00 | 0.00 | 44 | 1018.2 |
| 20260905175704 | 29 | 93 | 9.7 | 11.3 | 0.00 | 0.00 | 0.00 | 44 | 1018.2 |
| 20260905175604 | 29 | 93 | 9.7 | 11.3 | 0.00 | 0.00 | 0.00 | 44 | 1018.3 |
| 20260905175504 | 29 | 92 | 9.7 | 11.3 | 0.00 | 0.00 | 0.00 | 44 | 1018.3 |
| 20260905175404 | 29 | 91 | 9.7 | 9.7 | 0.00 | 0.00 | 0.00 | 44 | 1018.0 |
| 20260905175306 | 29 | 90 | 9.7 | 11.3 | 0.00 | 0.00 | 0.00 | 44 | 1018.3 |
| 20260905175204 | 29 | 92 | 9.7 | 11.3 | 0.00 | 0.00 | 0.00 | 43 | 1018.2 |
| 20260905175003 | 29 | 92 | 9.7 | 11.3 | 0.00 | 0.00 | 0.00 | 43 | 1018.0 |
| 20260905174604 | 29 | 93 | 9.7 | 11.3 | 0.00 | 0.00 | 0.00 | 42 | 1018.2 |
| 20260905174505 | 29 | 94 | 9.7 | 11.3 | 0.00 | 0.00 | 0.00 | 42 | 1018.1 |
| 20260905174404 | 29 | 93 | 9.7 | 11.3 | 0.00 | 0.00 | 0.00 | 42 | 1018.2 |
| 20260905174303 | 29 | 95 | 8.0 | 11.3 | 0.00 | 0.00 | 0.00 | 42 | 1018.1 |
| 20260905174003 | 29 | 89 | 8.0 | 11.3 | 0.00 | 0.00 | 0.00 | 42 | 1017.8 |
| 20260905173904 | 29 | 87 | 6.4 | 11.3 | 0.00 | 0.00 | 0.00 | 41 | 1017.8 |
| 20260905173804 | 29 | 85 | 6.4 | 11.3 | 0.00 | 0.00 | 0.00 | 41 | 1018.1 |
| 20260905173703 | 29 | 85 | 6.4 | 9.7 | 0.00 | 0.00 | 0.00 | 41 | 1018.0 |
| 20260905173403 | 29 | 87 | 8.0 | 12.9 | 0.00 | 0.00 | 0.00 | 41 | 1017.8 |
| 20260905173304 | 29 | 90 | 9.7 | 12.9 | 0.00 | 0.00 | 0.00 | 41 | 1018.0 |
| 20260905173204 | 29 | 91 | 9.7 | 16.1 | 0.00 | 0.00 | 0.00 | 41 | 1018.1 |
| 20260905173103 | 29 | 92 | 9.7 | 16.1 | 0.00 | 0.00 | 0.00 | 41 | 1018.0 |
| 20260905173004 | 29 | 94 | 11.3 | 16.1 | 0.00 | 0.00 | 0.00 | 41 | 1017.6 |
| 20260905172905 | 29 | 96 | 12.9 | 16.1 | 0.00 | 0.00 | 0.00 | 41 | 1017.8 |
| 20260905172704 | 29 | 98 | 12.9 | 16.1 | 0.00 | 0.00 | 0.00 | 41 | 1017.9 |
| 20260905172504 | 30 | 98 | 14.5 | 16.1 | 0.00 | 0.00 | 0.00 | 40 | 1017.8 |
| 20260905172404 | 30 | 98 | 14.5 | 16.1 | 0.00 | 0.00 | 0.00 | 40 | 1017.7 |
| 20260905172305 | 30 | 96 | 14.5 | 16.1 | 0.00 | 0.00 | 0.00 | 40 | 1017.8 |
| 20260905172204 | 30 | 94 | 12.9 | 16.1 | 0.00 | 0.00 | 0.00 | 40 | 1017.8 |
| 20260905172104 | 29 | 94 | 12.9 | 16.1 | 0.00 | 0.00 | 0.00 | 39 | 1017.7 |
| 20260905171904 | 29 | 94 | 12.9 | 16.1 | 0.00 | 0.00 | 0.00 | 40 | 1017.6 |
| 20260905171804 | 29 | 89 | 12.9 | 16.1 | 0.00 | 0.00 | 0.00 | 40 | 1017.7 |
| 20260905171703 | 29 | 88 | 12.9 | 16.1 | 0.00 | 0.00 | 0.00 | 40 | 1017.7 |
| 20260905171504 | 30 | 90 | 12.9 | 16.1 | 0.00 | 0.00 | 0.00 | 40 | 1017.9 |
| 20260905171404 | 30 | 93 | 12.9 | 16.1 | 0.00 | 0.00 | 0.00 | 40 | 1017.7 |
| 20260905171304 | 30 | 95 | 12.9 | 16.1 | 0.00 | 0.00 | 0.00 | 40 | 1017.9 |
| 20260905171204 | 30 | 96 | 14.5 | 16.1 | 0.00 | 0.00 | 0.00 | 39 | 1017.8 |
| 20260905171104 | 30 | 95 | 14.5 | 16.1 | 0.00 | 0.00 | 0.00 | 39 | 1017.8 |
| 20260905171004 | 30 | 97 | 14.5 | 16.1 | 0.00 | 0.00 | 0.00 | 39 | 1017.9 |
| 20260905170905 | 30 | 94 | 14.5 | 16.1 | 0.00 | 0.00 | 0.00 | 40 | 1017.9 |
| 20260905170804 | 30 | 101 | 14.5 | 17.7 | 0.00 | 0.00 | 0.00 | 40 | 1017.8 |
| 20260905170703 | 30 | 101 | 16.1 | 19.3 | 0.00 | 0.00 | 0.00 | 40 | 1017.9 |
| 20260905170604 | 30 | 101 | 16.1 | 19.3 | 0.00 | 0.00 | 0.00 | 39 | 1017.7 |
| 20260905170403 | 30 | 98 | 16.1 | 19.3 | 0.00 | 0.00 | 0.00 | 39 | 1017.8 |
| 20260905170304 | 30 | 97 | 16.1 | 19.3 | 0.00 | 0.00 | 0.00 | 39 | 1017.8 |
| 20260905170204 | 30 | 96 | 17.7 | 20.9 | 0.00 | 0.00 | 0.00 | 39 | 1017.6 |
| 20260905170004 | 30 | 97 | 17.7 | 20.9 | 0.00 | 0.00 | 0.00 | 39 | 1017.5 |
| 20260905165804 | 30 | 98 | 19.3 | 20.9 | 0.00 | 0.00 | 0.00 | 38 | 1018.0 |
| 20260905165704 | 30 | 99 | 17.7 | 20.9 | 0.00 | 0.00 | 0.00 | 38 | 1017.8 |
| 20260905165603 | 30 | 103 | 17.7 | 20.9 | 0.00 | 0.00 | 0.00 | 38 | 1017.6 |
| 20260905165504 | 30 | 105 | 17.7 | 20.9 | 0.00 | 0.00 | 0.00 | 38 | 1017.7 |
| 20260905165404 | 30 | 105 | 17.7 | 20.9 | 0.00 | 0.00 | 0.00 | 37 | 1017.6 |
| 20260905165306 | 30 | 107 | 17.7 | 20.9 | 0.00 | 0.00 | 0.00 | 37 | 1017.5 |
| 20260905165204 | 30 | 111 | 16.1 | 20.9 | 0.00 | 0.00 | 0.00 | 37 | 1017.6 |
| 20260905165104 | 30 | 111 | 16.1 | 20.9 | 0.00 | 0.00 | 0.00 | 37 | 1017.9 |
| 20260905165003 | 30 | 112 | 16.1 | 19.3 | 0.00 | 0.00 | 0.00 | 37 | 1017.7 |
| 20260905164904 | 30 | 111 | 14.5 | 19.3 | 0.00 | 0.00 | 0.00 | 37 | 1017.6 |
| 20260905164804 | 30 | 111 | 14.5 | 17.7 | 0.00 | 0.00 | 0.00 | 37 | 1017.7 |
| 20260905164703 | 30 | 110 | 14.5 | 17.7 | 0.00 | 0.00 | 0.00 | 37 | 1017.6 |
| 20260905164604 | 30 | 108 | 14.5 | 17.7 | 0.00 | 0.00 | 0.00 | 37 | 1017.8 |
| 20260905164504 | 30 | 108 | 12.9 | 17.7 | 0.00 | 0.00 | 0.00 | 37 | 1017.7 |
| 20260905164404 | 30 | 107 | 12.9 | 17.7 | 0.00 | 0.00 | 0.00 | 37 | 1017.7 |
| 20260905164303 | 30 | 105 | 12.9 | 17.7 | 0.00 | 0.00 | 0.00 | 37 | 1017.6 |
| 20260905164204 | 30 | 102 | 12.9 | 16.1 | 0.00 | 0.00 | 0.00 | 38 | 1017.7 |
| 20260905164104 | 30 | 100 | 12.9 | 16.1 | 0.00 | 0.00 | 0.00 | 38 | 1017.8 |
| 20260905164003 | 30 | 106 | 12.9 | 16.1 | 0.00 | 0.00 | 0.00 | 38 | 1017.7 |
| 20260905163904 | 30 | 107 | 12.9 | 16.1 | 0.00 | 0.00 | 0.00 | 38 | 1017.8 |
| 20260905163803 | 30 | 104 | 12.9 | 17.7 | 0.00 | 0.00 | 0.00 | 38 | 1017.6 |
| 20260905163704 | 30 | 103 | 14.5 | 17.7 | 0.00 | 0.00 | 0.00 | 38 | 1017.7 |
| 20260905163604 | 30 | 100 | 14.5 | 17.7 | 0.00 | 0.00 | 0.00 | 38 | 1017.9 |
| 20260905163503 | 30 | 100 | 14.5 | 17.7 | 0.00 | 0.00 | 0.00 | 38 | 1017.8 |
| 20260905163404 | 30 | 101 | 14.5 | 17.7 | 0.00 | 0.00 | 0.00 | 38 | 1017.6 |
| 20260905163203 | 30 | 108 | 16.1 | 19.3 | 0.00 | 0.00 | 0.00 | 37 | 1017.7 |
| 20260905163104 | 30 | 110 | 17.7 | 22.5 | 0.00 | 0.00 | 0.00 | 38 | 1017.7 |
| 20260905162903 | 30 | 106 | 17.7 | 22.5 | 0.00 | 0.00 | 0.00 | 38 | 1017.7 |
| 20260905162804 | 30 | 108 | 17.7 | 22.5 | 0.00 | 0.00 | 0.00 | 38 | 1017.6 |
| 20260905162705 | 30 | 111 | 19.3 | 22.5 | 0.00 | 0.00 | 0.00 | 38 | 1017.7 |
| 20260905162504 | 30 | 115 | 19.3 | 24.1 | 0.00 | 0.00 | 0.00 | 38 | 1017.7 |
| 20260905162404 | 30 | 115 | 19.3 | 24.1 | 0.00 | 0.00 | 0.00 | 38 | 1017.6 |
| 20260905162305 | 30 | 111 | 19.3 | 24.1 | 0.00 | 0.00 | 0.00 | 37 | 1017.6 |
| 20260905162204 | 30 | 107 | 19.3 | 24.1 | 0.00 | 0.00 | 0.00 | 37 | 1017.5 |
| 20260905162103 | 30 | 107 | 19.3 | 24.1 | 0.00 | 0.00 | 0.00 | 36 | 1017.6 |
| 20260905161905 | 30 | 106 | 19.3 | 24.1 | 0.00 | 0.00 | 0.00 | 35 | 1017.5 |
| 20260905161803 | 30 | 107 | 19.3 | 24.1 | 0.00 | 0.00 | 0.00 | 35 | 1017.6 |
| 20260905161604 | 30 | 104 | 19.3 | 24.1 | 0.00 | 0.00 | 0.00 | 33 | 1017.6 |
| 20260905161504 | 30 | 107 | 17.7 | 20.9 | 0.00 | 0.00 | 0.00 | 34 | 1017.5 |
| 20260905161304 | 30 | 111 | 17.7 | 20.9 | 0.00 | 0.00 | 0.00 | 33 | 1017.6 |
| 20260905161104 | 30 | 110 | 17.7 | 20.9 | 0.00 | 0.00 | 0.00 | 35 | 1017.5 |
| 20260905161003 | 31 | 108 | 17.7 | 20.9 | 0.00 | 0.00 | 0.00 | 35 | 1017.7 |
| 20260905160904 | 31 | 108 | 19.3 | 20.9 | 0.00 | 0.00 | 0.00 | 35 | 1017.5 |
| 20260905160604 | 31 | 105 | 17.7 | 20.9 | 0.00 | 0.00 | 0.00 | 34 | 1017.7 |
| 20260905160504 | 31 | 102 | 17.7 | 20.9 | 0.00 | 0.00 | 0.00 | 34 | 1017.4 |
| 20260905160403 | 31 | 99 | 17.7 | 20.9 | 0.00 | 0.00 | 0.00 | 34 | 1017.5 |
| 20260905160304 | 31 | 100 | 17.7 | 20.9 | 0.00 | 0.00 | 0.00 | 34 | 1017.6 |
| 20260905160203 | 31 | 102 | 17.7 | 19.3 | 0.00 | 0.00 | 0.00 | 33 | 1017.5 |
| 20260905160004 | 31 | 103 | 17.7 | 24.1 | 0.00 | 0.00 | 0.00 | 34 | 1017.4 |
| 20260905155804 | 31 | 103 | 17.7 | 24.1 | 0.00 | 0.00 | 0.00 | 34 | 1017.5 |
| 20260905155703 | 31 | 105 | 17.7 | 24.1 | 0.00 | 0.00 | 0.00 | 33 | 1017.3 |
| 20260905155604 | 31 | 105 | 19.3 | 24.1 | 0.00 | 0.00 | 0.00 | 33 | 1017.4 |
| 20260905155504 | 31 | 104 | 19.3 | 24.1 | 0.00 | 0.00 | 0.00 | 33 | 1017.4 |
| 20260905155403 | 31 | 105 | 19.3 | 24.1 | 0.00 | 0.00 | 0.00 | 33 | 1017.4 |
| 20260905155306 | 31 | 107 | 19.3 | 24.1 | 0.00 | 0.00 | 0.00 | 33 | 1017.3 |
| 20260905155204 | 31 | 104 | 19.3 | 24.1 | 0.00 | 0.00 | 0.00 | 33 | 1017.4 |
| 20260905155103 | 31 | 102 | 19.3 | 24.1 | 0.00 | 0.00 | 0.00 | 33 | 1017.3 |
| 20260905155005 | 31 | 101 | 17.7 | 24.1 | 0.00 | 0.00 | 0.00 | 32 | 1017.3 |
| 20260905154904 | 31 | 103 | 17.7 | 20.9 | 0.00 | 0.00 | 0.00 | 33 | 1017.3 |
| 20260905154604 | 31 | 101 | 17.7 | 20.9 | 0.00 | 0.00 | 0.00 | 33 | 1017.3 |
| 20260905154504 | 31 | 100 | 17.7 | 20.9 | 0.00 | 0.00 | 0.00 | 33 | 1017.3 |
| 20260905154403 | 31 | 102 | 17.7 | 20.9 | 0.00 | 0.00 | 0.00 | 33 | 1017.4 |
| 20260905154304 | 31 | 99 | 17.7 | 19.3 | 0.00 | 0.00 | 0.00 | 33 | 1017.2 |
| 20260905154203 | 31 | 100 | 17.7 | 19.3 | 0.00 | 0.00 | 0.00 | 33 | 1017.3 |
| 20260905154103 | 31 | 104 | 17.7 | 22.5 | 0.00 | 0.00 | 0.00 | 34 | 1017.4 |
| 20260905154004 | 31 | 104 | 17.7 | 22.5 | 0.00 | 0.00 | 0.00 | 34 | 1017.2 |
| 20260905153903 | 31 | 102 | 17.7 | 24.1 | 0.00 | 0.00 | 0.00 | 34 | 1017.5 |
| 20260905153804 | 31 | 98 | 19.3 | 24.1 | 0.00 | 0.00 | 0.00 | 34 | 1017.5 |
| 20260905153705 | 31 | 99 | 19.3 | 24.1 | 0.00 | 0.00 | 0.00 | 33 | 1017.4 |
| 20260905153503 | 31 | 103 | 19.3 | 24.1 | 0.00 | 0.00 | 0.00 | 34 | 1017.3 |
| 20260905153403 | 31 | 104 | 19.3 | 24.1 | 0.00 | 0.00 | 0.00 | 34 | 1017.5 |
| 20260905153304 | 31 | 104 | 19.3 | 24.1 | 0.00 | 0.00 | 0.00 | 34 | 1017.4 |
| 20260905153204 | 31 | 106 | 17.7 | 24.1 | 0.00 | 0.00 | 0.00 | 35 | 1017.4 |
| 20260905153103 | 31 | 104 | 17.7 | 24.1 | 0.00 | 0.00 | 0.00 | 35 | 1017.5 |
| 20260905152904 | 31 | 106 | 17.7 | 20.9 | 0.00 | 0.00 | 0.00 | 34 | 1017.4 |
| 20260905152803 | 31 | 108 | 17.7 | 20.9 | 0.00 | 0.00 | 0.00 | 34 | 1017.4 |
| 20260905152704 | 31 | 110 | 17.7 | 19.3 | 0.00 | 0.00 | 0.00 | 34 | 1017.4 |
| 20260905152605 | 31 | 109 | 16.1 | 19.3 | 0.00 | 0.00 | 0.00 | 34 | 1017.4 |
| 20260905152404 | 31 | 103 | 16.1 | 19.3 | 0.00 | 0.00 | 0.00 | 34 | 1017.4 |
| 20260905152104 | 31 | 102 | 16.1 | 19.3 | 0.00 | 0.00 | 0.00 | 34 | 1017.4 |
| 20260905152005 | 31 | 101 | 14.5 | 19.3 | 0.00 | 0.00 | 0.00 | 34 | 1017.3 |
| 20260905151904 | 31 | 101 | 16.1 | 22.5 | 0.00 | 0.00 | 0.00 | 35 | 1017.4 |
| 20260905151704 | 31 | 101 | 16.1 | 22.5 | 0.00 | 0.00 | 0.00 | 35 | 1017.3 |
| 20260905151504 | 31 | 104 | 17.7 | 22.5 | 0.00 | 0.00 | 0.00 | 35 | 1017.3 |
| 20260905151304 | 31 | 107 | 17.7 | 22.5 | 0.00 | 0.00 | 0.00 | 36 | 1017.5 |
| 20260905151203 | 31 | 107 | 17.7 | 22.5 | 0.00 | 0.00 | 0.00 | 36 | 1017.5 |
| 20260905151104 | 31 | 104 | 19.3 | 24.1 | 0.00 | 0.00 | 0.00 | 36 | 1017.4 |
| 20260905151004 | 31 | 102 | 19.3 | 24.1 | 0.00 | 0.00 | 0.00 | 36 | 1017.4 |
| 20260905150903 | 31 | 102 | 19.3 | 24.1 | 0.00 | 0.00 | 0.00 | 35 | 1017.6 |
| 20260905150803 | 31 | 101 | 17.7 | 24.1 | 0.00 | 0.00 | 0.00 | 37 | 1017.4 |
| 20260905150704 | 31 | 102 | 17.7 | 24.1 | 0.00 | 0.00 | 0.00 | 37 | 1017.3 |
| 20260905150603 | 31 | 101 | 17.7 | 24.1 | 0.00 | 0.00 | 0.00 | 37 | 1017.3 |
| 20260905150403 | 31 | 97 | 16.1 | 24.1 | 0.00 | 0.00 | 0.00 | 38 | 1017.6 |
| 20260905150204 | 31 | 95 | 16.1 | 24.1 | 0.00 | 0.00 | 0.00 | 38 | 1017.4 |
| 20260905150004 | 31 | 103 | 16.1 | 19.3 | 0.00 | 0.00 | 0.00 | 38 | 1017.4 |
| 20260905145903 | 31 | 102 | 16.1 | 24.1 | 0.00 | 0.00 | 0.00 | 38 | 1017.5 |
| 20260905145804 | 31 | 104 | 16.1 | 24.1 | 0.00 | 0.00 | 0.00 | 38 | 1017.4 |
| 20260905145704 | 31 | 104 | 16.1 | 24.1 | 0.00 | 0.00 | 0.00 | 37 | 1017.4 |
| 20260905145604 | 31 | 107 | 17.7 | 24.1 | 0.00 | 0.00 | 0.00 | 37 | 1017.4 |
| 20260905145503 | 31 | 108 | 17.7 | 24.1 | 0.00 | 0.00 | 0.00 | 37 | 1017.2 |
| 20260905145404 | 31 | 108 | 17.7 | 24.1 | 0.00 | 0.00 | 0.00 | 37 | 1017.5 |
| 20260905145306 | 31 | 106 | 17.7 | 24.1 | 0.00 | 0.00 | 0.00 | 37 | 1017.3 |
| 20260905145203 | 31 | 107 | 17.7 | 24.1 | 0.00 | 0.00 | 0.00 | 37 | 1017.3 |
| 20260905145104 | 31 | 109 | 17.7 | 24.1 | 0.00 | 0.00 | 0.00 | 36 | 1017.3 |
| 20260905145003 | 31 | 106 | 17.7 | 24.1 | 0.00 | 0.00 | 0.00 | 37 | 1017.2 |
| 20260905144804 | 31 | 103 | 16.1 | 19.3 | 0.00 | 0.00 | 0.00 | 36 | 1017.5 |
| 20260905144704 | 31 | 99 | 16.1 | 19.3 | 0.00 | 0.00 | 0.00 | 36 | 1017.4 |
| 20260905144504 | 31 | 100 | 16.1 | 19.3 | 0.00 | 0.00 | 0.00 | 36 | 1017.4 |
| 20260905144403 | 31 | 102 | 16.1 | 19.3 | 0.00 | 0.00 | 0.00 | 36 | 1017.4 |
| 20260905144305 | 31 | 106 | 16.1 | 19.3 | 0.00 | 0.00 | 0.00 | 35 | 1017.4 |
| 20260905144204 | 31 | 106 | 16.1 | 19.3 | 0.00 | 0.00 | 0.00 | 35 | 1017.3 |
| 20260905144003 | 31 | 105 | 16.1 | 19.3 | 0.00 | 0.00 | 0.00 | 36 | 1017.3 |
| 20260905143904 | 31 | 104 | 16.1 | 19.3 | 0.00 | 0.00 | 0.00 | 36 | 1017.6 |
| 20260905143803 | 31 | 104 | 16.1 | 19.3 | 0.00 | 0.00 | 0.00 | 35 | 1017.4 |
| 20260905143604 | 31 | 104 | 14.5 | 17.7 | 0.00 | 0.00 | 0.00 | 35 | 1017.4 |
| 20260905143504 | 31 | 100 | 14.5 | 17.7 | 0.00 | 0.00 | 0.00 | 36 | 1017.4 |
| 20260905143403 | 31 | 99 | 12.9 | 17.7 | 0.00 | 0.00 | 0.00 | 36 | 1017.5 |
| 20260905143304 | 32 | 94 | 12.9 | 16.1 | 0.00 | 0.00 | 0.00 | 37 | 1017.4 |
| 20260905143104 | 32 | 91 | 12.9 | 16.1 | 0.00 | 0.00 | 0.00 | 37 | 1017.5 |
| 20260905142904 | 32 | 95 | 12.9 | 16.1 | 0.00 | 0.00 | 0.00 | 36 | 1017.4 |
| 20260905142803 | 32 | 98 | 11.3 | 16.1 | 0.00 | 0.00 | 0.00 | 36 | 1017.5 |
| 20260905142704 | 32 | 99 | 11.3 | 17.7 | 0.00 | 0.00 | 0.00 | 35 | 1017.3 |
| 20260905142504 | 32 | 101 | 12.9 | 17.7 | 0.00 | 0.00 | 0.00 | 34 | 1017.3 |
| 20260905142403 | 32 | 100 | 12.9 | 17.7 | 0.00 | 0.00 | 0.00 | 34 | 1017.4 |
| 20260905142306 | 32 | 99 | 12.9 | 17.7 | 0.00 | 0.00 | 0.00 | 34 | 1017.5 |
| 20260905142203 | 32 | 100 | 12.9 | 17.7 | 0.00 | 0.00 | 0.00 | 34 | 1017.4 |
| 20260905142104 | 32 | 100 | 12.9 | 17.7 | 0.00 | 0.00 | 0.00 | 35 | 1017.5 |
| 20260905142004 | 32 | 97 | 12.9 | 17.7 | 0.00 | 0.00 | 0.00 | 34 | 1017.6 |
| 20260905141903 | 32 | 95 | 11.3 | 17.7 | 0.00 | 0.00 | 0.00 | 35 | 1017.4 |
| 20260905141804 | 32 | 93 | 11.3 | 17.7 | 0.00 | 0.00 | 0.00 | 36 | 1017.4 |
| 20260905141603 | 32 | 89 | 9.7 | 16.1 | 0.00 | 0.00 | 0.00 | 36 | 1017.6 |
| 20260905141505 | 32 | 89 | 9.7 | 16.1 | 0.00 | 0.00 | 0.00 | 36 | 1017.6 |
| 20260905141404 | 32 | 91 | 9.7 | 16.1 | 0.00 | 0.00 | 0.00 | 36 | 1017.7 |
| 20260905141303 | 32 | 95 | 11.3 | 16.1 | 0.00 | 0.00 | 0.00 | 36 | 1017.5 |
| 20260905140904 | 32 | 96 | 12.9 | 16.1 | 0.00 | 0.00 | 0.00 | 36 | 1017.4 |
| 20260905140803 | 32 | 97 | 12.9 | 16.1 | 0.00 | 0.00 | 0.00 | 36 | 1017.3 |
| 20260905140604 | 32 | 97 | 12.9 | 16.1 | 0.00 | 0.00 | 0.00 | 37 | 1017.5 |
| 20260905140503 | 32 | 101 | 12.9 | 16.1 | 0.00 | 0.00 | 0.00 | 36 | 1017.5 |
| 20260905140304 | 32 | 98 | 12.9 | 16.1 | 0.00 | 0.00 | 0.00 | 35 | 1017.7 |
| 20260905140103 | 33 | 104 | 11.3 | 16.1 | 0.00 | 0.00 | 0.00 | 34 | 1017.6 |
| 20260905140005 | 33 | 104 | 11.3 | 16.1 | 0.00 | 0.00 | 0.00 | 34 | 1017.5 |
| 20260905135903 | 33 | 98 | 11.3 | 12.9 | 0.00 | 0.00 | 0.00 | 34 | 1017.6 |
| 20260905135803 | 33 | 100 | 11.3 | 12.9 | 0.00 | 0.00 | 0.00 | 33 | 1017.3 |
| 20260905135704 | 32 | 100 | 11.3 | 12.9 | 0.00 | 0.00 | 0.00 | 33 | 1017.5 |
| 20260905135603 | 32 | 98 | 11.3 | 12.9 | 0.00 | 0.00 | 0.00 | 33 | 1017.5 |
| 20260905135503 | 32 | 93 | 11.3 | 12.9 | 0.00 | 0.00 | 0.00 | 33 | 1017.5 |
| 20260905135404 | 32 | 91 | 11.3 | 12.9 | 0.00 | 0.00 | 0.00 | 32 | 1017.7 |
| 20260905135306 | 32 | 91 | 11.3 | 12.9 | 0.00 | 0.00 | 0.00 | 32 | 1017.4 |
| 20260905135203 | 32 | 91 | 9.7 | 12.9 | 0.00 | 0.00 | 0.00 | 32 | 1017.6 |
| 20260905135104 | 32 | 90 | 9.7 | 12.9 | 0.00 | 0.00 | 0.00 | 31 | 1017.6 |
| 20260905134903 | 32 | 90 | 9.7 | 12.9 | 0.00 | 0.00 | 0.00 | 30 | 1017.4 |
| 20260905134804 | 32 | 87 | 9.7 | 12.9 | 0.00 | 0.00 | 0.00 | 31 | 1017.4 |
| 20260905134703 | 32 | 87 | 9.7 | 12.9 | 0.00 | 0.00 | 0.00 | 31 | 1017.5 |
| 20260905134504 | 32 | 90 | 11.3 | 19.3 | 0.00 | 0.00 | 0.00 | 31 | 1017.8 |
| 20260905134303 | 32 | 90 | 11.3 | 19.3 | 0.00 | 0.00 | 0.00 | 31 | 1017.7 |
| 20260905134104 | 32 | 91 | 12.9 | 19.3 | 0.00 | 0.00 | 0.00 | 32 | 1017.7 |
| 20260905134003 | 32 | 90 | 12.9 | 19.3 | 0.00 | 0.00 | 0.00 | 32 | 1017.7 |
| 20260905133703 | 32 | 93 | 12.9 | 19.3 | 0.00 | 0.00 | 0.00 | 31 | 1017.6 |
| 20260905133606 | 32 | 93 | 11.3 | 19.3 | 0.00 | 0.00 | 0.00 | 31 | 1017.7 |
| 20260905133505 | 32 | 97 | 11.3 | 14.5 | 0.00 | 0.00 | 0.00 | 31 | 1017.6 |
| 20260905133404 | 32 | 96 | 11.3 | 14.5 | 0.00 | 0.00 | 0.00 | 31 | 1017.8 |
| 20260905133304 | 32 | 96 | 9.7 | 14.5 | 0.00 | 0.00 | 0.00 | 32 | 1017.7 |
| 20260905133205 | 33 | 92 | 9.7 | 14.5 | 0.00 | 0.00 | 0.00 | 32 | 1017.8 |
| 20260905133105 | 33 | 90 | 9.7 | 14.5 | 0.00 | 0.00 | 0.00 | 32 | 1017.8 |
| 20260905132905 | 33 | 81 | 9.7 | 14.5 | 0.00 | 0.00 | 0.00 | 32 | 1017.9 |
| 20260905132804 | 33 | 76 | 9.7 | 14.5 | 0.00 | 0.00 | 0.00 | 33 | 1017.8 |
| 20260905132605 | 33 | 77 | 9.7 | 14.5 | 0.00 | 0.00 | 0.00 | 32 | 1017.8 |
| 20260905132505 | 33 | 67 | 9.7 | 14.5 | 0.00 | 0.00 | 0.00 | 32 | 1018.0 |
| 20260905132404 | 33 | 67 | 9.7 | 14.5 | 0.00 | 0.00 | 0.00 | 32 | 1017.9 |
| 20260905132306 | 33 | 66 | 9.7 | 14.5 | 0.00 | 0.00 | 0.00 | 32 | 1017.8 |
| 20260905132104 | 33 | 75 | 9.7 | 14.5 | 0.00 | 0.00 | 0.00 | 32 | 1017.8 |
| 20260905131905 | 33 | 75 | 8.0 | 9.7 | 0.00 | 0.00 | 0.00 | 32 | 1017.8 |
| 20260905131805 | 33 | 79 | 8.0 | 9.7 | 0.00 | 0.00 | 0.00 | 32 | 1017.9 |
| 20260905131704 | 33 | 83 | 9.7 | 14.5 | 0.00 | 0.00 | 0.00 | 33 | 1017.6 |
| 20260905131605 | 33 | 80 | 9.7 | 14.5 | 0.00 | 0.00 | 0.00 | 32 | 1017.7 |
| 20260905131405 | 33 | 84 | 9.7 | 14.5 | 0.00 | 0.00 | 0.00 | 32 | 1018.0 |
| 20260905131305 | 33 | 82 | 9.7 | 14.5 | 0.00 | 0.00 | 0.00 | 32 | 1017.9 |
| 20260905131104 | 33 | 82 | 9.7 | 14.5 | 0.00 | 0.00 | 0.00 | 31 | 1017.8 |
| 20260905131005 | 33 | 84 | 9.7 | 14.5 | 0.00 | 0.00 | 0.00 | 32 | 1018.0 |
| 20260905130905 | 33 | 88 | 9.7 | 14.5 | 0.00 | 0.00 | 0.00 | 32 | 1017.7 |
| 20260905130805 | 33 | 86 | 9.7 | 14.5 | 0.00 | 0.00 | 0.00 | 32 | 1018.0 |
| 20260905130504 | 33 | 83 | 8.0 | 14.5 | 0.00 | 0.00 | 0.00 | 31 | 1017.8 |
| 20260905130405 | 33 | 73 | 8.0 | 14.5 | 0.00 | 0.00 | 0.00 | 31 | 1017.8 |
| 20260905130305 | 33 | 76 | 8.0 | 14.5 | 0.00 | 0.00 | 0.00 | 31 | 1018.0 |
| 20260905130104 | 33 | 69 | 8.0 | 11.3 | 0.00 | 0.00 | 0.00 | 30 | 1017.8 |
| 20260905130005 | 33 | 72 | 9.7 | 12.9 | 0.00 | 0.00 | 0.00 | 30 | 1018.0 |
| 20260905125904 | 33 | 74 | 9.7 | 12.9 | 0.00 | 0.00 | 0.00 | 30 | 1017.9 |
| 20260905125805 | 33 | 75 | 9.7 | 12.9 | 0.00 | 0.00 | 0.00 | 30 | 1017.9 |
| 20260905125705 | 33 | 77 | 11.3 | 12.9 | 0.00 | 0.00 | 0.00 | 30 | 1017.8 |
| 20260905125604 | 33 | 81 | 11.3 | 16.1 | 0.00 | 0.00 | 0.00 | 30 | 1017.9 |
| 20260905125505 | 33 | 86 | 11.3 | 16.1 | 0.00 | 0.00 | 0.00 | 30 | 1017.7 |
| 20260905125306 | 32 | 96 | 12.9 | 16.1 | 0.00 | 0.00 | 0.00 | 31 | 1017.8 |
| 20260905125204 | 32 | 95 | 12.9 | 16.1 | 0.00 | 0.00 | 0.00 | 31 | 1017.9 |
| 20260905125105 | 32 | 95 | 12.9 | 16.1 | 0.00 | 0.00 | 0.00 | 31 | 1018.0 |
| 20260905125005 | 32 | 94 | 12.9 | 16.1 | 0.00 | 0.00 | 0.00 | 31 | 1017.7 |
| 20260905124805 | 33 | 91 | 12.9 | 16.1 | 0.00 | 0.00 | 0.00 | 31 | 1017.9 |
| 20260905124705 | 33 | 91 | 11.3 | 16.1 | 0.00 | 0.00 | 0.00 | 31 | 1017.8 |
| 20260905124604 | 33 | 91 | 11.3 | 16.1 | 0.00 | 0.00 | 0.00 | 31 | 1017.9 |
| 20260905124405 | 33 | 85 | 11.3 | 12.9 | 0.00 | 0.00 | 0.00 | 31 | 1018.0 |
| 20260905124304 | 33 | 87 | 11.3 | 12.9 | 0.00 | 0.00 | 0.00 | 31 | 1017.9 |
| 20260905124105 | 32 | 88 | 11.3 | 16.1 | 0.00 | 0.00 | 0.00 | 31 | 1017.9 |
| 20260905124004 | 32 | 90 | 11.3 | 16.1 | 0.00 | 0.00 | 0.00 | 32 | 1018.1 |
| 20260905123905 | 32 | 91 | 12.9 | 16.1 | 0.00 | 0.00 | 0.00 | 32 | 1017.8 |
| 20260905123806 | 32 | 95 | 12.9 | 16.1 | 0.00 | 0.00 | 0.00 | 32 | 1017.8 |
| 20260905123704 | 32 | 97 | 12.9 | 16.1 | 0.00 | 0.00 | 0.00 | 32 | 1017.7 |
| 20260905123604 | 32 | 95 | 12.9 | 16.1 | 0.00 | 0.00 | 0.00 | 32 | 1017.8 |
| 20260905123505 | 32 | 91 | 12.9 | 16.1 | 0.00 | 0.00 | 0.00 | 33 | 1017.9 |
| 20260905123404 | 32 | 92 | 12.9 | 16.1 | 0.00 | 0.00 | 0.00 | 33 | 1018.0 |
| 20260905123304 | 33 | 93 | 12.9 | 19.3 | 0.00 | 0.00 | 0.00 | 34 | 1018.0 |
| 20260905123205 | 33 | 96 | 12.9 | 19.3 | 0.00 | 0.00 | 0.00 | 34 | 1018.0 |
| 20260905123105 | 33 | 99 | 12.9 | 19.3 | 0.00 | 0.00 | 0.00 | 33 | 1018.1 |
| 20260905123004 | 33 | 93 | 12.9 | 19.3 | 0.00 | 0.00 | 0.00 | 33 | 1018.0 |
| 20260905122905 | 33 | 94 | 12.9 | 19.3 | 0.00 | 0.00 | 0.00 | 32 | 1018.0 |
| 20260905122805 | 33 | 94 | 12.9 | 19.3 | 0.00 | 0.00 | 0.00 | 32 | 1018.0 |
| 20260905122705 | 33 | 94 | 12.9 | 19.3 | 0.00 | 0.00 | 0.00 | 31 | 1018.2 |
| 20260905122604 | 33 | 91 | 12.9 | 19.3 | 0.00 | 0.00 | 0.00 | 31 | 1018.2 |
| 20260905122505 | 33 | 91 | 12.9 | 19.3 | 0.00 | 0.00 | 0.00 | 31 | 1017.9 |
| 20260905122405 | 33 | 89 | 11.3 | 19.3 | 0.00 | 0.00 | 0.00 | 31 | 1018.0 |
| 20260905122306 | 33 | 83 | 11.3 | 19.3 | 0.00 | 0.00 | 0.00 | 31 | 1018.1 |
| 20260905122205 | 32 | 82 | 11.3 | 14.5 | 0.00 | 0.00 | 0.00 | 32 | 1018.0 |
| 20260905122004 | 32 | 76 | 11.3 | 14.5 | 0.00 | 0.00 | 0.00 | 33 | 1018.0 |
| 20260905121904 | 32 | 73 | 11.3 | 14.5 | 0.00 | 0.00 | 0.00 | 32 | 1018.0 |
| 20260905121705 | 32 | 65 | 9.7 | 12.9 | 0.00 | 0.00 | 0.00 | 32 | 1018.1 |
| 20260905121505 | 33 | 77 | 11.3 | 17.7 | 0.00 | 0.00 | 0.00 | 31 | 1018.1 |
| 20260905121405 | 33 | 74 | 11.3 | 17.7 | 0.00 | 0.00 | 0.00 | 31 | 1018.2 |
| 20260905121305 | 33 | 70 | 11.3 | 17.7 | 0.00 | 0.00 | 0.00 | 33 | 1018.3 |
| 20260905121204 | 32 | 66 | 12.9 | 17.7 | 0.00 | 0.00 | 0.00 | 33 | 1018.1 |
| 20260905121105 | 32 | 74 | 12.9 | 17.7 | 0.00 | 0.00 | 0.00 | 32 | 1018.3 |
| 20260905121005 | 32 | 76 | 12.9 | 17.7 | 0.00 | 0.00 | 0.00 | 32 | 1018.2 |
| 20260905120904 | 32 | 76 | 12.9 | 17.7 | 0.00 | 0.00 | 0.00 | 33 | 1018.2 |
| 20260905120805 | 32 | 80 | 12.9 | 17.7 | 0.00 | 0.00 | 0.00 | 33 | 1018.3 |
| 20260905120705 | 32 | 77 | 12.9 | 17.7 | 0.00 | 0.00 | 0.00 | 32 | 1018.2 |
| 20260905120604 | 32 | 78 | 12.9 | 17.7 | 0.00 | 0.00 | 0.00 | 33 | 1018.2 |
| 20260905120504 | 32 | 76 | 12.9 | 17.7 | 0.00 | 0.00 | 0.00 | 32 | 1018.3 |
| 20260905120405 | 33 | 77 | 12.9 | 16.1 | 0.00 | 0.00 | 0.00 | 32 | 1018.3 |
| 20260905120205 | 33 | 85 | 12.9 | 17.7 | 0.00 | 0.00 | 0.00 | 31 | 1018.2 |
| 20260905120006 | 32 | 79 | 12.9 | 17.7 | 0.00 | 0.00 | 0.00 | 32 | 1018.3 |
| 20260905115905 | 32 | 82 | 12.9 | 17.7 | 0.00 | 0.00 | 0.00 | 32 | 1018.3 |
| 20260905115805 | 32 | 82 | 12.9 | 17.7 | 0.00 | 0.00 | 0.00 | 32 | 1018.3 |
| 20260905115704 | 33 | 81 | 12.9 | 17.7 | 0.00 | 0.00 | 0.00 | 32 | 1018.3 |
| 20260905115204 | 33 | 77 | 9.7 | 12.9 | 0.00 | 0.00 | 0.00 | 32 | 1018.4 |
| 20260905115005 | 33 | 77 | 11.3 | 17.7 | 0.00 | 0.00 | 0.00 | 31 | 1018.3 |
| 20260905114904 | 33 | 76 | 11.3 | 17.7 | 0.00 | 0.00 | 0.00 | 31 | 1018.4 |
| 20260905114804 | 32 | 74 | 11.3 | 17.7 | 0.00 | 0.00 | 0.00 | 33 | 1018.1 |
| 20260905114705 | 32 | 77 | 11.3 | 17.7 | 0.00 | 0.00 | 0.00 | 33 | 1018.4 |
| 20260905114604 | 32 | 77 | 12.9 | 17.7 | 0.00 | 0.00 | 0.00 | 33 | 1018.2 |
| 20260905114505 | 32 | 78 | 12.9 | 17.7 | 0.00 | 0.00 | 0.00 | 33 | 1018.4 |
| 20260905114405 | 32 | 78 | 12.9 | 17.7 | 0.00 | 0.00 | 0.00 | 33 | 1018.3 |
| 20260905114205 | 33 | 77 | 12.9 | 17.7 | 0.00 | 0.00 | 0.00 | 33 | 1018.4 |
| 20260905114104 | 33 | 82 | 12.9 | 17.7 | 0.00 | 0.00 | 0.00 | 33 | 1018.2 |
| 20260905114004 | 33 | 78 | 12.9 | 17.7 | 0.00 | 0.00 | 0.00 | 33 | 1018.4 |
| 20260905113904 | 33 | 66 | 12.9 | 17.7 | 0.00 | 0.00 | 0.00 | 32 | 1018.2 |
| 20260905113805 | 33 | 62 | 12.9 | 17.7 | 0.00 | 0.00 | 0.00 | 32 | 1018.4 |
| 20260905113604 | 33 | 53 | 11.3 | 17.7 | 0.00 | 0.00 | 0.00 | 32 | 1018.3 |
| 20260905113504 | 33 | 51 | 11.3 | 17.7 | 0.00 | 0.00 | 0.00 | 32 | 1018.2 |
| 20260905113405 | 33 | 48 | 11.3 | 17.7 | 0.00 | 0.00 | 0.00 | 34 | 1018.4 |
| 20260905113204 | 33 | 38 | 11.3 | 17.7 | 0.00 | 0.00 | 0.00 | 34 | 1018.4 |
| 20260905113005 | 33 | 37 | 11.3 | 14.5 | 0.00 | 0.00 | 0.00 | 31 | 1018.4 |
| 20260905112904 | 33 | 46 | 11.3 | 12.9 | 0.00 | 0.00 | 0.00 | 32 | 1018.5 |
| 20260905112805 | 33 | 55 | 9.7 | 12.9 | 0.00 | 0.00 | 0.00 | 33 | 1018.5 |
| 20260905112705 | 33 | 53 | 11.3 | 12.9 | 0.00 | 0.00 | 0.00 | 33 | 1018.3 |
| 20260905112604 | 33 | 58 | 9.7 | 12.9 | 0.00 | 0.00 | 0.00 | 32 | 1018.5 |
| 20260905112205 | 33 | 76 | 9.7 | 12.9 | 0.00 | 0.00 | 0.00 | 35 | 1018.4 |
| 20260905112104 | 33 | 82 | 11.3 | 19.3 | 0.00 | 0.00 | 0.00 | 35 | 1018.3 |
| 20260905111704 | 33 | 97 | 12.9 | 24.1 | 0.00 | 0.00 | 0.00 | 35 | 1018.4 |
| 20260905111505 | 32 | 94 | 14.5 | 24.1 | 0.00 | 0.00 | 0.00 | 35 | 1018.4 |
| 20260905111405 | 32 | 95 | 14.5 | 24.1 | 0.00 | 0.00 | 0.00 | 36 | 1018.5 |
| 20260905111305 | 32 | 95 | 14.5 | 24.1 | 0.00 | 0.00 | 0.00 | 36 | 1018.2 |
| 20260905111204 | 32 | 97 | 14.5 | 24.1 | 0.00 | 0.00 | 0.00 | 36 | 1018.4 |
| 20260905111104 | 32 | 96 | 12.9 | 24.1 | 0.00 | 0.00 | 0.00 | 35 | 1018.3 |
| 20260905111005 | 32 | 95 | 12.9 | 24.1 | 0.00 | 0.00 | 0.00 | 35 | 1018.2 |
| 20260905110905 | 33 | 95 | 11.3 | 24.1 | 0.00 | 0.00 | 0.00 | 35 | 1018.3 |
| 20260905110804 | 33 | 90 | 11.3 | 24.1 | 0.00 | 0.00 | 0.00 | 35 | 1018.3 |
| 20260905110704 | 33 | 80 | 9.7 | 16.1 | 0.00 | 0.00 | 0.00 | 35 | 1018.3 |
| 20260905110605 | 34 | 77 | 9.7 | 16.1 | 0.00 | 0.00 | 0.00 | 34 | 1018.4 |
| 20260905110105 | 33 | 55 | 9.7 | 12.9 | 0.00 | 0.00 | 0.00 | 32 | 1018.4 |
| 20260905110005 | 33 | 48 | 9.7 | 12.9 | 0.00 | 0.00 | 0.00 | 32 | 1018.2 |
| 20260905105904 | 33 | 52 | 9.7 | 12.9 | 0.00 | 0.00 | 0.00 | 30 | 1018.4 |
| 20260905105804 | 33 | 54 | 9.7 | 14.5 | 0.00 | 0.00 | 0.00 | 29 | 1018.3 |
| 20260905105705 | 34 | 60 | 9.7 | 14.5 | 0.00 | 0.00 | 0.00 | 29 | 1018.3 |
| 20260905105604 | 34 | 63 | 11.3 | 14.5 | 0.00 | 0.00 | 0.00 | 29 | 1018.3 |
| 20260905105504 | 34 | 72 | 9.7 | 14.5 | 0.00 | 0.00 | 0.00 | 28 | 1018.3 |
| 20260905105405 | 34 | 76 | 9.7 | 14.5 | 0.00 | 0.00 | 0.00 | 28 | 1018.4 |
| 20260905105306 | 34 | 73 | 11.3 | 14.5 | 0.00 | 0.00 | 0.00 | 29 | 1018.4 |
| 20260905105104 | 33 | 70 | 9.7 | 14.5 | 0.00 | 0.00 | 0.00 | 31 | 1018.4 |
| 20260905105004 | 33 | 73 | 11.3 | 14.5 | 0.00 | 0.00 | 0.00 | 33 | 1018.3 |
| 20260905104905 | 33 | 69 | 9.7 | 14.5 | 0.00 | 0.00 | 0.00 | 32 | 1018.2 |
| 20260905104804 | 33 | 71 | 9.7 | 14.5 | 0.00 | 0.00 | 0.00 | 35 | 1018.3 |
| 20260905104705 | 33 | 65 | 9.7 | 12.9 | 0.00 | 0.00 | 0.00 | 35 | 1018.4 |
| 20260905104605 | 33 | 71 | 11.3 | 12.9 | 0.00 | 0.00 | 0.00 | 34 | 1018.3 |
| 20260905104505 | 33 | 65 | 11.3 | 17.7 | 0.00 | 0.00 | 0.00 | 35 | 1018.4 |
| 20260905104404 | 33 | 58 | 11.3 | 17.7 | 0.00 | 0.00 | 0.00 | 35 | 1018.4 |
| 20260905104304 | 32 | 58 | 11.3 | 17.7 | 0.00 | 0.00 | 0.00 | 35 | 1018.6 |
| 20260905104205 | 32 | 59 | 9.7 | 17.7 | 0.00 | 0.00 | 0.00 | 35 | 1018.2 |
| 20260905104105 | 32 | 57 | 11.3 | 17.7 | 0.00 | 0.00 | 0.00 | 36 | 1018.4 |
| 20260905104004 | 32 | 60 | 11.3 | 17.7 | 0.00 | 0.00 | 0.00 | 36 | 1018.2 |
| 20260905103805 | 32 | 65 | 11.3 | 17.7 | 0.00 | 0.00 | 0.00 | 36 | 1018.4 |
| 20260905103704 | 32 | 64 | 11.3 | 17.7 | 0.00 | 0.00 | 0.00 | 35 | 1018.3 |
| 20260905103505 | 32 | 42 | 11.3 | 17.7 | 0.00 | 0.00 | 0.00 | 36 | 1018.4 |
| 20260905103405 | 32 | 44 | 9.7 | 17.7 | 0.00 | 0.00 | 0.00 | 36 | 1018.4 |
| 20260905103304 | 32 | 41 | 11.3 | 17.7 | 0.00 | 0.00 | 0.00 | 36 | 1018.5 |
| 20260905103204 | 32 | 37 | 11.3 | 17.7 | 0.00 | 0.00 | 0.00 | 36 | 1018.4 |
| 20260905103105 | 32 | 36 | 9.7 | 17.7 | 0.00 | 0.00 | 0.00 | 36 | 1018.6 |
| 20260905103006 | 32 | 26 | 9.7 | 17.7 | 0.00 | 0.00 | 0.00 | 36 | 1018.3 |
| 20260905102904 | 32 | 17 | 9.7 | 17.7 | 0.00 | 0.00 | 0.00 | 37 | 1018.7 |
| 20260905102804 | 32 | 10 | 9.7 | 17.7 | 0.00 | 0.00 | 0.00 | 36 | 1018.3 |
| 20260905102705 | 32 | 359 | 9.7 | 17.7 | 0.00 | 0.00 | 0.00 | 36 | 1018.4 |
| 20260905102605 | 32 | 5 | 8.0 | 12.9 | 0.00 | 0.00 | 0.00 | 36 | 1018.4 |
| 20260905102504 | 32 | 14 | 8.0 | 12.9 | 0.00 | 0.00 | 0.00 | 36 | 1018.5 |
| 20260905102404 | 32 | 15 | 8.0 | 12.9 | 0.00 | 0.00 | 0.00 | 36 | 1018.5 |
| 20260905102306 | 32 | 24 | 8.0 | 12.9 | 0.00 | 0.00 | 0.00 | 35 | 1018.4 |
| 20260905102204 | 32 | 32 | 8.0 | 12.9 | 0.00 | 0.00 | 0.00 | 35 | 1018.5 |
| 20260905102104 | 33 | 31 | 8.0 | 12.9 | 0.00 | 0.00 | 0.00 | 35 | 1018.6 |
| 20260905101905 | 33 | 53 | 9.7 | 12.9 | 0.00 | 0.00 | 0.00 | 35 | 1018.5 |
| 20260905101804 | 32 | 65 | 9.7 | 12.9 | 0.00 | 0.00 | 0.00 | 35 | 1018.6 |
| 20260905101705 | 32 | 76 | 9.7 | 12.9 | 0.00 | 0.00 | 0.00 | 35 | 1018.5 |
| 20260905101604 | 32 | 82 | 9.7 | 12.9 | 0.00 | 0.00 | 0.00 | 36 | 1018.4 |
| 20260905101404 | 32 | 78 | 9.7 | 12.9 | 0.00 | 0.00 | 0.00 | 37 | 1018.6 |
| 20260905101204 | 32 | 71 | 11.3 | 12.9 | 0.00 | 0.00 | 0.00 | 41 | 1018.6 |
| 20260905101106 | 32 | 65 | 11.3 | 12.9 | 0.00 | 0.00 | 0.00 | 41 | 1018.7 |
| 20260905101004 | 32 | 61 | 11.3 | 12.9 | 0.00 | 0.00 | 0.00 | 41 | 1018.6 |
| 20260905100905 | 32 | 59 | 11.3 | 12.9 | 0.00 | 0.00 | 0.00 | 41 | 1018.7 |
| 20260905100804 | 32 | 56 | 11.3 | 12.9 | 0.00 | 0.00 | 0.00 | 41 | 1018.6 |
| 20260905100504 | 32 | 53 | 9.7 | 12.9 | 0.00 | 0.00 | 0.00 | 41 | 1018.5 |
| 20260905100404 | 32 | 49 | 9.7 | 12.9 | 0.00 | 0.00 | 0.00 | 41 | 1018.5 |
| 20260905100305 | 32 | 48 | 8.0 | 12.9 | 0.00 | 0.00 | 0.00 | 41 | 1018.5 |
| 20260905100105 | 32 | 69 | 8.0 | 12.9 | 0.00 | 0.00 | 0.00 | 39 | 1018.4 |
| 20260905100005 | 32 | 74 | 8.0 | 12.9 | 0.00 | 0.00 | 0.00 | 42 | 1018.7 |
| 20260905095805 | 32 | 75 | 8.0 | 12.9 | 0.00 | 0.00 | 0.00 | 41 | 1018.5 |
| 20260905095705 | 32 | 72 | 9.7 | 12.9 | 0.00 | 0.00 | 0.00 | 41 | 1018.4 |
| 20260905095604 | 32 | 54 | 9.7 | 12.9 | 0.00 | 0.00 | 0.00 | 42 | 1018.5 |
| 20260905095505 | 31 | 55 | 9.7 | 12.9 | 0.00 | 0.00 | 0.00 | 43 | 1018.5 |
| 20260905095405 | 31 | 58 | 9.7 | 12.9 | 0.00 | 0.00 | 0.00 | 43 | 1018.4 |
| 20260905095204 | 31 | 59 | 11.3 | 12.9 | 0.00 | 0.00 | 0.00 | 43 | 1018.5 |
| 20260905095106 | 31 | 58 | 11.3 | 12.9 | 0.00 | 0.00 | 0.00 | 43 | 1018.5 |
| 20260905095005 | 31 | 49 | 11.3 | 12.9 | 0.00 | 0.00 | 0.00 | 43 | 1018.5 |
| 20260905094905 | 31 | 44 | 9.7 | 12.9 | 0.00 | 0.00 | 0.00 | 39 | 1018.7 |
| 20260905094804 | 31 | 53 | 9.7 | 12.9 | 0.00 | 0.00 | 0.00 | 38 | 1018.5 |
| 20260905094605 | 32 | 54 | 9.7 | 12.9 | 0.00 | 0.00 | 0.00 | 39 | 1018.6 |
| 20260905094504 | 32 | 54 | 9.7 | 16.1 | 0.00 | 0.00 | 0.00 | 36 | 1018.5 |
| 20260905094304 | 32 | 53 | 9.7 | 16.1 | 0.00 | 0.00 | 0.00 | 36 | 1018.4 |
| 20260905094204 | 32 | 55 | 9.7 | 16.1 | 0.00 | 0.00 | 0.00 | 36 | 1018.3 |
| 20260905094105 | 32 | 46 | 9.7 | 16.1 | 0.00 | 0.00 | 0.00 | 35 | 1018.5 |
| 20260905094005 | 32 | 40 | 9.7 | 16.1 | 0.00 | 0.00 | 0.00 | 36 | 1018.4 |
| 20260905093904 | 32 | 30 | 11.3 | 16.1 | 0.00 | 0.00 | 0.00 | 36 | 1018.3 |
| 20260905093804 | 32 | 24 | 11.3 | 16.1 | 0.00 | 0.00 | 0.00 | 36 | 1018.3 |
| 20260905093705 | 32 | 31 | 11.3 | 16.1 | 0.00 | 0.00 | 0.00 | 35 | 1018.2 |
| 20260905093405 | 33 | 24 | 9.7 | 16.1 | 0.00 | 0.00 | 0.00 | 33 | 1018.4 |
| 20260905093304 | 33 | 19 | 9.7 | 12.9 | 0.00 | 0.00 | 0.00 | 31 | 1018.5 |
| 20260905093205 | 33 | 13 | 9.7 | 12.9 | 0.00 | 0.00 | 0.00 | 31 | 1018.5 |
| 20260905093105 | 33 | 18 | 9.7 | 12.9 | 0.00 | 0.00 | 0.00 | 33 | 1018.5 |
| 20260905092905 | 33 | 38 | 9.7 | 12.9 | 0.00 | 0.00 | 0.00 | 32 | 1018.2 |
| 20260905092806 | 33 | 43 | 9.7 | 12.9 | 0.00 | 0.00 | 0.00 | 31 | 1018.3 |
| 20260905092704 | 33 | 38 | 8.0 | 12.9 | 0.00 | 0.00 | 0.00 | 32 | 1018.4 |
| 20260905092604 | 33 | 29 | 8.0 | 12.9 | 0.00 | 0.00 | 0.00 | 33 | 1018.4 |
| 20260905092505 | 33 | 27 | 8.0 | 12.9 | 0.00 | 0.00 | 0.00 | 33 | 1018.4 |
| 20260905092404 | 33 | 16 | 8.0 | 12.9 | 0.00 | 0.00 | 0.00 | 33 | 1018.5 |
| 20260905092306 | 33 | 14 | 8.0 | 12.9 | 0.00 | 0.00 | 0.00 | 32 | 1018.2 |
| 20260905092204 | 33 | 16 | 8.0 | 12.9 | 0.00 | 0.00 | 0.00 | 33 | 1018.4 |
| 20260905092105 | 33 | 19 | 8.0 | 12.9 | 0.00 | 0.00 | 0.00 | 33 | 1018.3 |
| 20260905091905 | 33 | 19 | 6.4 | 11.3 | 0.00 | 0.00 | 0.00 | 32 | 1018.5 |
| 20260905091804 | 33 | 13 | 6.4 | 11.3 | 0.00 | 0.00 | 0.00 | 31 | 1018.5 |
| 20260905091704 | 33 | 36 | 8.0 | 12.9 | 0.00 | 0.00 | 0.00 | 31 | 1018.6 |
| 20260905091605 | 33 | 57 | 8.0 | 12.9 | 0.00 | 0.00 | 0.00 | 30 | 1018.7 |
| 20260905091504 | 33 | 59 | 8.0 | 12.9 | 0.00 | 0.00 | 0.00 | 30 | 1018.6 |
| 20260905091405 | 33 | 62 | 8.0 | 12.9 | 0.00 | 0.00 | 0.00 | 29 | 1018.5 |
| 20260905091304 | 33 | 66 | 8.0 | 12.9 | 0.00 | 0.00 | 0.00 | 30 | 1018.4 |
| 20260905091204 | 33 | 63 | 8.0 | 12.9 | 0.00 | 0.00 | 0.00 | 32 | 1018.3 |
| 20260905091104 | 33 | 53 | 6.4 | 12.9 | 0.00 | 0.00 | 0.00 | 31 | 1018.3 |
| 20260905091005 | 33 | 51 | 6.4 | 12.9 | 0.00 | 0.00 | 0.00 | 30 | 1018.4 |
| 20260905090904 | 33 | 28 | 6.4 | 12.9 | 0.00 | 0.00 | 0.00 | 31 | 1018.3 |
| 20260905090804 | 33 | 17 | 8.0 | 12.9 | 0.00 | 0.00 | 0.00 | 31 | 1018.2 |
| 20260905090504 | 33 | 301 | 6.4 | 8.0 | 0.00 | 0.00 | 0.00 | 30 | 1018.4 |
| 20260905090404 | 32 | 300 | 6.4 | 11.3 | 0.00 | 0.00 | 0.00 | 30 | 1018.1 |
| 20260905090305 | 32 | 303 | 6.4 | 11.3 | 0.00 | 0.00 | 0.00 | 28 | 1018.0 |
| 20260905090204 | 32 | 307 | 8.0 | 11.3 | 0.00 | 0.00 | 0.00 | 27 | 1018.1 |
| 20260905090005 | 32 | 316 | 8.0 | 11.3 | 0.00 | 0.00 | 0.00 | 28 | 1018.2 |
| 20260905085905 | 32 | 325 | 8.0 | 11.3 | 0.00 | 0.00 | 0.00 | 28 | 1018.1 |
| 20260905085804 | 32 | 332 | 8.0 | 11.3 | 0.00 | 0.00 | 0.00 | 28 | 1018.2 |
| 20260905085705 | 32 | 337 | 8.0 | 11.3 | 0.00 | 0.00 | 0.00 | 28 | 1018.0 |
| 20260905085604 | 32 | 335 | 8.0 | 11.3 | 0.00 | 0.00 | 0.00 | 28 | 1018.2 |
| 20260905085505 | 32 | 342 | 8.0 | 11.3 | 0.00 | 0.00 | 0.00 | 28 | 1018.2 |
| 20260905085404 | 32 | 351 | 8.0 | 11.3 | 0.00 | 0.00 | 0.00 | 27 | 1018.0 |
| 20260905085306 | 32 | 349 | 8.0 | 9.7 | 0.00 | 0.00 | 0.00 | 27 | 1018.1 |
| 20260905085204 | 32 | 342 | 8.0 | 9.7 | 0.00 | 0.00 | 0.00 | 27 | 1018.2 |
| 20260905084905 | 32 | 336 | 6.4 | 8.0 | 0.00 | 0.00 | 0.00 | 28 | 1018.1 |
| 20260905084804 | 32 | 344 | 6.4 | 8.0 | 0.00 | 0.00 | 0.00 | 28 | 1018.0 |
| 20260905084704 | 32 | 353 | 6.4 | 8.0 | 0.00 | 0.00 | 0.00 | 29 | 1018.1 |
| 20260905084605 | 32 | 12 | 6.4 | 8.0 | 0.00 | 0.00 | 0.00 | 29 | 1018.1 |
| 20260905084504 | 32 | 23 | 6.4 | 9.7 | 0.00 | 0.00 | 0.00 | 29 | 1018.1 |
| 20260905084305 | 32 | 43 | 6.4 | 9.7 | 0.00 | 0.00 | 0.00 | 29 | 1018.0 |
| 20260905084204 | 32 | 56 | 6.4 | 9.7 | 0.00 | 0.00 | 0.00 | 30 | 1018.1 |
| 20260905084104 | 32 | 66 | 6.4 | 9.7 | 0.00 | 0.00 | 0.00 | 30 | 1018.1 |
| 20260905084005 | 32 | 66 | 6.4 | 9.7 | 0.00 | 0.00 | 0.00 | 29 | 1018.1 |
| 20260905083904 | 32 | 69 | 8.0 | 9.7 | 0.00 | 0.00 | 0.00 | 30 | 1018.1 |
| 20260905083705 | 32 | 64 | 8.0 | 11.3 | 0.00 | 0.00 | 0.00 | 32 | 1018.2 |
| 20260905083504 | 32 | 51 | 6.4 | 11.3 | 0.00 | 0.00 | 0.00 | 33 | 1018.2 |
| 20260905083404 | 32 | 50 | 6.4 | 11.3 | 0.00 | 0.00 | 0.00 | 33 | 1018.0 |
| 20260905083306 | 32 | 34 | 6.4 | 11.3 | 0.00 | 0.00 | 0.00 | 33 | 1018.0 |
| 20260905083205 | 32 | 9 | 6.4 | 11.3 | 0.00 | 0.00 | 0.00 | 33 | 1018.0 |
| 20260905083104 | 33 | 356 | 6.4 | 11.3 | 0.00 | 0.00 | 0.00 | 34 | 1017.9 |
| 20260905083005 | 33 | 342 | 6.4 | 11.3 | 0.00 | 0.00 | 0.00 | 34 | 1018.0 |
| 20260905082804 | 33 | 318 | 6.4 | 11.3 | 0.00 | 0.00 | 0.00 | 32 | 1017.9 |
| 20260905082705 | 32 | 315 | 6.4 | 11.3 | 0.00 | 0.00 | 0.00 | 32 | 1018.0 |
| 20260905082504 | 32 | 307 | 6.4 | 11.3 | 0.00 | 0.00 | 0.00 | 32 | 1018.0 |
| 20260905082404 | 32 | 310 | 6.4 | 11.3 | 0.00 | 0.00 | 0.00 | 32 | 1017.9 |
| 20260905082204 | 32 | 314 | 6.4 | 11.3 | 0.00 | 0.00 | 0.00 | 31 | 1018.0 |
| 20260905082104 | 32 | 312 | 6.4 | 9.7 | 0.00 | 0.00 | 0.00 | 32 | 1017.9 |
| 20260905082004 | 32 | 311 | 8.0 | 9.7 | 0.00 | 0.00 | 0.00 | 32 | 1018.0 |
| 20260905081905 | 32 | 312 | 6.4 | 9.7 | 0.00 | 0.00 | 0.00 | 32 | 1017.9 |
| 20260905081805 | 32 | 318 | 6.4 | 9.7 | 0.00 | 0.00 | 0.00 | 33 | 1018.1 |
| 20260905081704 | 32 | 317 | 6.4 | 12.9 | 0.00 | 0.00 | 0.00 | 33 | 1017.8 |
| 20260905081604 | 32 | 327 | 8.0 | 12.9 | 0.00 | 0.00 | 0.00 | 33 | 1018.0 |
| 20260905081505 | 32 | 332 | 8.0 | 12.9 | 0.00 | 0.00 | 0.00 | 33 | 1017.7 |
| 20260905081404 | 32 | 335 | 8.0 | 12.9 | 0.00 | 0.00 | 0.00 | 33 | 1017.9 |
| 20260905081305 | 32 | 336 | 6.4 | 12.9 | 0.00 | 0.00 | 0.00 | 33 | 1017.8 |
| 20260905081104 | 32 | 344 | 6.4 | 12.9 | 0.00 | 0.00 | 0.00 | 33 | 1017.9 |
| 20260905081004 | 32 | 350 | 6.4 | 12.9 | 0.00 | 0.00 | 0.00 | 33 | 1017.9 |
| 20260905080904 | 32 | 350 | 6.4 | 12.9 | 0.00 | 0.00 | 0.00 | 32 | 1017.9 |
| 20260905080805 | 33 | 346 | 6.4 | 12.9 | 0.00 | 0.00 | 0.00 | 33 | 1017.9 |
| 20260905080705 | 33 | 348 | 6.4 | 12.9 | 0.00 | 0.00 | 0.00 | 32 | 1018.2 |
| 20260905080604 | 33 | 354 | 4.8 | 12.9 | 0.00 | 0.00 | 0.00 | 31 | 1017.9 |
| 20260905080504 | 33 | 356 | 4.8 | 8.0 | 0.00 | 0.00 | 0.00 | 31 | 1017.9 |
| 20260905080405 | 33 | 2 | 4.8 | 8.0 | 0.00 | 0.00 | 0.00 | 30 | 1017.8 |
| 20260905080006 | 33 | 40 | 3.2 | 4.8 | 0.00 | 0.00 | 0.00 | 30 | 1017.9 |
| 20260905075805 | 33 | 68 | 4.8 | 6.4 | 0.00 | 0.00 | 0.00 | 30 | 1017.8 |
| 20260905075704 | 33 | 76 | 4.8 | 6.4 | 0.00 | 0.00 | 0.00 | 30 | 1017.8 |
| 20260905075605 | 33 | 84 | 4.8 | 6.4 | 0.00 | 0.00 | 0.00 | 29 | 1017.6 |
| 20260905075504 | 33 | 89 | 4.8 | 6.4 | 0.00 | 0.00 | 0.00 | 30 | 1017.8 |
| 20260905075306 | 33 | 96 | 4.8 | 6.4 | 0.00 | 0.00 | 0.00 | 31 | 1017.7 |
| 20260905075205 | 33 | 97 | 4.8 | 6.4 | 0.00 | 0.00 | 0.00 | 30 | 1017.6 |
| 20260905075104 | 33 | 97 | 4.8 | 6.4 | 0.00 | 0.00 | 0.00 | 31 | 1017.6 |
| 20260905075004 | 33 | 97 | 4.8 | 6.4 | 0.00 | 0.00 | 0.00 | 30 | 1017.8 |
| 20260905074905 | 33 | 99 | 4.8 | 6.4 | 0.00 | 0.00 | 0.00 | 31 | 1017.6 |
| 20260905074804 | 33 | 103 | 4.8 | 6.4 | 0.00 | 0.00 | 0.00 | 31 | 1017.6 |
| 20260905074704 | 33 | 107 | 4.8 | 6.4 | 0.00 | 0.00 | 0.00 | 31 | 1017.5 |
| 20260905074605 | 33 | 151 | 4.8 | 8.0 | 0.00 | 0.00 | 0.00 | 31 | 1017.7 |
| 20260905074505 | 33 | 201 | 4.8 | 8.0 | 0.00 | 0.00 | 0.00 | 30 | 1017.8 |
| 20260905074404 | 33 | 185 | 4.8 | 8.0 | 0.00 | 0.00 | 0.00 | 31 | 1017.7 |
| 20260905074304 | 33 | 164 | 4.8 | 8.0 | 0.00 | 0.00 | 0.00 | 31 | 1017.8 |
| 20260905074205 | 32 | 143 | 4.8 | 8.0 | 0.00 | 0.00 | 0.00 | 31 | 1017.9 |
| 20260905074104 | 32 | 165 | 4.8 | 8.0 | 0.00 | 0.00 | 0.00 | 29 | 1017.5 |
| 20260905073904 | 33 | 182 | 4.8 | 8.0 | 0.00 | 0.00 | 0.00 | 26 | 1017.6 |
| 20260905073805 | 33 | 129 | 3.2 | 8.0 | 0.00 | 0.00 | 0.00 | 25 | 1017.7 |
| 20260905073604 | 33 | 102 | 3.2 | 6.4 | 0.00 | 0.00 | 0.00 | 28 | 1017.7 |
| 20260905073505 | 33 | 91 | 3.2 | 4.8 | 0.00 | 0.00 | 0.00 | 29 | 1017.5 |
| 20260905073404 | 32 | 90 | 1.6 | 4.8 | 0.00 | 0.00 | 0.00 | 32 | 1017.4 |
| 20260905073205 | 32 | 96 | 1.6 | 3.2 | 0.00 | 0.00 | 0.00 | 32 | 1017.4 |
| 20260905073104 | 32 | 99 | 1.6 | 3.2 | 0.00 | 0.00 | 0.00 | 31 | 1017.3 |
| 20260905072904 | 32 | 102 | 3.2 | 3.2 | 0.00 | 0.00 | 0.00 | 32 | 1017.6 |
| 20260905072804 | 32 | 104 | 3.2 | 4.8 | 0.00 | 0.00 | 0.00 | 32 | 1017.4 |
| 20260905072704 | 32 | 105 | 3.2 | 4.8 | 0.00 | 0.00 | 0.00 | 32 | 1017.5 |
| 20260905072604 | 32 | 105 | 3.2 | 4.8 | 0.00 | 0.00 | 0.00 | 32 | 1017.4 |
| 20260905072505 | 31 | 104 | 3.2 | 4.8 | 0.00 | 0.00 | 0.00 | 32 | 1017.4 |
| 20260905072404 | 31 | 105 | 3.2 | 4.8 | 0.00 | 0.00 | 0.00 | 33 | 1017.3 |
| 20260905072204 | 31 | 105 | 3.2 | 4.8 | 0.00 | 0.00 | 0.00 | 34 | 1017.4 |
| 20260905072105 | 31 | 105 | 3.2 | 4.8 | 0.00 | 0.00 | 0.00 | 35 | 1017.4 |
| 20260905072004 | 31 | 105 | 3.2 | 4.8 | 0.00 | 0.00 | 0.00 | 34 | 1017.4 |
| 20260905071904 | 31 | 106 | 3.2 | 4.8 | 0.00 | 0.00 | 0.00 | 35 | 1017.5 |
| 20260905071805 | 31 | 106 | 3.2 | 4.8 | 0.00 | 0.00 | 0.00 | 34 | 1017.3 |
| 20260905071705 | 31 | 101 | 3.2 | 4.8 | 0.00 | 0.00 | 0.00 | 35 | 1017.3 |
| 20260905071604 | 31 | 104 | 3.2 | 4.8 | 0.00 | 0.00 | 0.00 | 35 | 1017.4 |
| 20260905071505 | 31 | 106 | 3.2 | 4.8 | 0.00 | 0.00 | 0.00 | 35 | 1017.6 |
| 20260905071404 | 31 | 107 | 3.2 | 4.8 | 0.00 | 0.00 | 0.00 | 35 | 1017.5 |
| 20260905071304 | 31 | 107 | 3.2 | 3.2 | 0.00 | 0.00 | 0.00 | 35 | 1017.4 |
| 20260905071204 | 31 | 108 | 3.2 | 3.2 | 0.00 | 0.00 | 0.00 | 35 | 1017.5 |
| 20260905071104 | 31 | 104 | 3.2 | 4.8 | 0.00 | 0.00 | 0.00 | 35 | 1017.4 |
| 20260905071005 | 31 | 101 | 3.2 | 4.8 | 0.00 | 0.00 | 0.00 | 35 | 1017.4 |
| 20260905070904 | 31 | 99 | 3.2 | 4.8 | 0.00 | 0.00 | 0.00 | 36 | 1017.4 |
| 20260905070804 | 31 | 99 | 3.2 | 4.8 | 0.00 | 0.00 | 0.00 | 34 | 1017.5 |
| 20260905070704 | 31 | 104 | 3.2 | 4.8 | 0.00 | 0.00 | 0.00 | 35 | 1017.5 |
| 20260905070604 | 30 | 103 | 3.2 | 4.8 | 0.00 | 0.00 | 0.00 | 36 | 1017.7 |
| 20260905070404 | 30 | 104 | 3.2 | 4.8 | 0.00 | 0.00 | 0.00 | 35 | 1017.6 |
| 20260905070204 | 30 | 104 | 3.2 | 4.8 | 0.00 | 0.00 | 0.00 | 34 | 1017.5 |
| 20260905070104 | 30 | 106 | 3.2 | 4.8 | 0.00 | 0.00 | 0.00 | 35 | 1017.4 |
| 20260905070005 | 30 | 110 | 3.2 | 4.8 | 0.00 | 0.00 | 0.00 | 34 | 1017.6 |